KG7AIQ Weather Reports


Display with metric or nautical units.
time (UTC)temp
F
wind
direction
speed
MPH
gust
MPH
rain 1hr
in
rain 24hr
in
rain mn
in
humidity
%
barometer
mb
20260506015701 68 260 1.0 5.0 0.00 0.08 0.00 40 1011.3
20260506015532 68 194 1.0 5.0 0.00 0.08 0.00 41 1011.3
20260506015456 68 193 1.0 5.0 0.00 0.08 0.00 39 1011.3
20260506015354 68 306 1.0 5.0 0.00 0.08 0.00 40 1011.3
20260506015252 68 306 1.0 5.0 0.00 0.08 0.00 39 1011.3
20260506015149 68 286 1.0 4.0 0.00 0.08 0.00 41 1011.3
20260506015054 68 263 1.0 3.0 0.00 0.08 0.00 40 1011.3
20260506015050 68 263 1.0 3.0 0.00 0.08 0.00 41 1011.3
20260506015045 68 263 1.0 3.0 0.00 0.08 0.00 40 1011.3
20260506014838 68 263 1.0 3.0 0.00 0.08 0.00 40 1011.3
20260506014738 68 263 1.0 3.0 0.00 0.08 0.00 39 1011.3
20260506014734 68 263 1.0 3.0 0.00 0.08 0.00 39 1011.3
20260506014528 69 263 1.0 3.0 0.00 0.08 0.00 40 1011.3
20260506014522 69 263 1.0 3.0 0.00 0.08 0.00 39 1011.3
20260506014442 69 256 1.0 5.0 0.00 0.08 0.00 39 1011.3
20260506014438 69 257 1.0 5.0 0.00 0.08 0.00 40 1011.3
20260506014434 69 257 1.0 3.0 0.00 0.08 0.00 39 1011.3
20260506014119 69 289 1.0 5.0 0.00 0.08 0.00 39 1011.3
20260506014016 69 315 1.0 5.0 0.00 0.08 0.00 39 1011.3
20260506013914 69 315 2.0 5.0 0.00 0.08 0.00 39 1011.3
20260506013749 69 315 2.0 5.0 0.00 0.08 0.00 40 1011.3
20260506013641 69 315 2.0 5.0 0.00 0.08 0.00 38 1011.3
20260506013522 69 315 2.0 5.0 0.00 0.09 0.00 39 1011.3
20260506013426 69 315 2.0 5.0 0.00 0.09 0.00 38 1011.3
20260506013322 69 259 2.0 4.0 0.00 0.09 0.00 38 1011.5
20260506013221 69 259 2.0 4.0 0.00 0.09 0.00 38 1011.5
20260506013115 69 290 2.0 4.0 0.00 0.10 0.00 38 1011.5
20260506013027 70 291 2.0 4.0 0.00 0.12 0.00 37 1011.5
20260506013023 70 270 2.0 4.0 0.00 0.12 0.00 38 1011.5
20260506013014 69 290 2.0 4.0 0.00 0.11 0.00 37 1011.5
20260506012703 70 190 2.0 4.0 0.00 0.12 0.00 38 1011.5
20260506012603 70 190 2.0 4.0 0.00 0.12 0.00 38 1011.5
20260506012514 70 185 2.0 4.0 0.00 0.12 0.00 38 1011.5
20260506012458 70 183 2.0 4.0 0.00 0.12 0.00 38 1011.5
20260506012356 70 155 2.0 4.0 0.00 0.13 0.00 37 1011.5
20260506012351 70 183 2.0 4.0 0.00 0.13 0.00 38 1011.5
20260506012146 70 146 2.0 4.0 0.00 0.14 0.00 36 1011.5
20260506012052 70 208 2.0 4.0 0.00 0.14 0.00 38 1011.5
20260506012048 70 153 2.0 4.0 0.00 0.14 0.00 37 1011.5
20260506012042 70 153 2.0 4.0 0.00 0.14 0.00 38 1011.5
20260506011839 70 208 2.0 4.0 0.00 0.15 0.00 37 1011.5
20260506011746 70 208 2.0 4.0 0.00 0.15 0.00 37 1011.4
20260506011742 70 208 2.0 4.0 0.00 0.15 0.00 37 1011.4
20260506011533 70 208 2.0 4.0 0.00 0.16 0.00 37 1011.4
20260506011515 70 208 2.0 5.0 0.00 0.16 0.00 37 1011.4
20260506011419 70 239 2.0 5.0 0.00 0.16 0.00 36 1011.4
20260506011319 71 239 2.0 5.0 0.00 0.16 0.00 36 1011.4
20260506011228 71 251 2.0 5.0 0.00 0.17 0.00 36 1011.4
20260506011223 71 221 2.0 5.0 0.00 0.16 0.00 36 1011.4
20260506011013 71 266 2.0 5.0 0.00 0.17 0.00 37 1011.4
20260506010911 71 100 2.0 5.0 0.00 0.17 0.00 36 1011.4
20260506010807 71 271 2.0 5.0 0.00 0.17 0.00 36 1011.4
20260506010705 71 271 2.0 5.0 0.00 0.17 0.00 36 1011.4
20260506010606 71 274 2.0 5.0 0.00 0.18 0.00 36 1011.4
20260506010507 71 233 2.0 5.0 0.00 0.18 0.00 36 1011.4
20260506010458 71 232 2.0 5.0 0.00 0.18 0.00 36 1011.4
20260506010341 71 231 2.0 5.0 0.00 0.18 0.00 37 1011.4
20260506010242 71 232 2.0 5.0 0.00 0.18 0.00 36 1011.4
20260506010237 71 241 2.0 5.0 0.00 0.18 0.00 36 1011.4
20260506010029 71 293 2.0 5.0 0.00 0.18 0.00 35 1011.4
20260506010007 71 264 3.0 4.0 0.00 0.18 0.00 35 1011.4
20260506005929 71 77 3.0 4.0 0.00 0.18 0.00 36 1011.4
20260506005828 71 144 3.0 4.0 0.00 0.18 0.00 36 1011.4
20260506005729 71 199 3.0 6.0 0.00 0.18 0.00 36 1011.4
20260506005634 71 167 3.0 6.0 0.00 0.19 0.00 36 1011.4
20260506005630 71 176 3.0 6.0 0.00 0.18 0.00 36 1011.4
20260506005507 71 164 3.0 6.0 0.00 0.19 0.00 36 1011.4
20260506005423 71 173 3.0 6.0 0.00 0.20 0.00 35 1011.4
20260506005319 71 190 3.0 6.0 0.00 0.20 0.00 37 1011.4
20260506005218 71 190 3.0 6.0 0.00 0.20 0.00 36 1011.4
20260506005116 71 116 3.0 6.0 0.00 0.21 0.00 36 1011.4
20260506005016 71 99 3.0 6.0 0.00 0.21 0.00 36 1011.4
20260506005007 71 99 4.0 6.0 0.00 0.21 0.00 36 1011.4
20260506004915 71 136 4.0 6.0 0.00 0.21 0.00 37 1011.4
20260506004835 71 61 4.0 6.0 0.00 0.22 0.00 36 1011.5
20260506004831 71 30 4.0 6.0 0.00 0.23 0.00 37 1011.5
20260506004827 71 275 4.0 6.0 0.00 0.22 0.00 36 1011.5
20260506004507 71 232 4.0 6.0 0.00 0.23 0.00 37 1011.5
20260506004437 71 250 4.0 6.0 0.00 0.23 0.00 36 1011.5
20260506004433 71 250 4.0 6.0 0.00 0.23 0.00 36 1011.5
20260506004429 71 282 4.0 7.0 0.00 0.24 0.00 36 1011.5
20260506004425 71 233 4.0 6.0 0.00 0.23 0.00 36 1011.5
20260506004007 71 315 3.0 7.0 0.00 0.24 0.00 36 1011.5
20260506003903 71 268 3.0 9.0 0.00 0.24 0.00 35 1011.5
20260506003804 71 288 3.0 9.0 0.00 0.24 0.00 35 1011.5
20260506003711 71 343 3.0 9.0 0.00 0.24 0.00 35 1011.5
20260506003707 71 318 3.0 9.0 0.00 0.24 0.00 36 1011.5
20260506003520 71 309 3.0 9.0 0.00 0.24 0.00 35 1011.5
20260506003516 71 263 3.0 9.0 0.00 0.24 0.00 35 1011.4
20260506003511 71 344 3.0 9.0 0.00 0.24 0.00 35 1011.5
20260506003507 71 344 3.0 9.0 0.00 0.24 0.00 35 1011.5
20260506003156 71 230 3.0 9.0 0.00 0.24 0.00 35 1011.4
20260506003056 71 263 3.0 9.0 0.00 0.24 0.00 35 1011.4
20260506003004 71 258 5.0 9.0 0.00 0.24 0.00 35 1011.4
20260506002955 71 257 5.0 9.0 0.00 0.24 0.00 35 1011.4
20260506002903 71 251 5.0 7.0 0.00 0.24 0.00 36 1011.4
20260506002859 71 272 5.0 7.0 0.00 0.24 0.00 36 1011.4
20260506002651 71 238 5.0 7.0 0.00 0.24 0.00 37 1011.4
20260506002544 71 244 5.0 7.0 0.00 0.24 0.00 37 1011.4
20260506002504 71 223 5.0 11.0 0.00 0.24 0.00 37 1011.4
20260506002500 71 260 5.0 11.0 0.00 0.24 0.00 37 1011.4
20260506002456 71 198 5.0 11.0 0.00 0.24 0.00 36 1011.4
20260506002452 71 145 5.0 11.0 0.00 0.24 0.00 36 1011.4
20260506002237 71 32 5.0 11.0 0.00 0.24 0.00 36 1011.4
20260506002031 71 238 5.0 11.0 0.00 0.24 0.00 36 1011.4
20260506002004 71 312 4.0 11.0 0.00 0.24 0.00 36 1011.4
20260506002000 71 282 4.0 11.0 0.00 0.24 0.00 37 1011.4
20260506001955 71 169 4.0 11.0 0.00 0.24 0.00 37 1011.4
20260506001951 71 250 4.0 11.0 0.00 0.24 0.00 36 1011.4
20260506001947 71 122 4.0 11.0 0.00 0.24 0.00 36 1011.4
20260506001543 71 246 4.0 10.0 0.00 0.24 0.00 36 1011.4
20260506001539 71 321 4.0 11.0 0.00 0.24 0.00 36 1011.4
20260506001534 71 263 4.0 10.0 0.00 0.24 0.00 36 1011.4
20260506001329 71 267 4.0 10.0 0.00 0.24 0.00 36 1011.4
20260506001233 72 250 3.0 11.0 0.00 0.24 0.00 35 1011.4
20260506001228 72 321 4.0 10.0 0.00 0.24 0.00 35 1011.4
20260506001128 72 282 4.0 10.0 0.00 0.24 0.00 35 1011.4
20260506001107 72 280 4.0 11.0 0.00 0.24 0.00 36 1011.4
20260506000926 72 236 3.0 11.0 0.00 0.24 0.00 35 1011.4
20260506000826 72 257 3.0 11.0 0.00 0.24 0.00 36 1011.4
20260506000726 72 300 3.0 11.0 0.00 0.24 0.00 35 1011.4
20260506000634 72 286 3.0 11.0 0.00 0.24 0.00 35 1011.4
20260506000630 72 256 3.0 11.0 0.00 0.24 0.00 35 1011.4
20260506000502 72 337 3.0 11.0 0.00 0.24 0.00 35 1011.4
20260506000423 72 285 3.0 11.0 0.00 0.24 0.00 35 1011.4
20260506000323 72 106 3.0 11.0 0.00 0.24 0.00 35 1011.4
20260506000222 72 303 3.0 11.0 0.00 0.24 0.00 35 1011.4
20260506000130 72 241 3.0 10.0 0.00 0.24 0.00 36 1011.4
20260506000126 72 277 3.0 11.0 0.00 0.24 0.00 35 1011.4
20260506000002 72 160 2.0 9.0 0.00 0.24 0.00 36 1011.4
20260505235921 72 257 2.0 9.0 0.00 0.24 0.00 35 1011.4
20260505235821 72 297 2.0 9.0 0.00 0.24 0.00 35 1011.4
20260505235732 72 328 2.0 9.0 0.00 0.24 0.00 35 1011.4
20260505235721 72 264 2.0 9.0 0.00 0.24 0.00 35 1011.4
20260505235621 72 267 2.0 9.0 0.00 0.24 0.00 35 1011.4
20260505235607 72 328 2.0 9.0 0.00 0.24 0.00 35 1011.4
20260505235416 72 274 2.0 9.0 0.00 0.24 0.00 35 1011.4
20260505235316 72 314 2.0 5.0 0.00 0.24 0.00 36 1011.4
20260505235224 72 165 2.0 7.0 0.00 0.24 0.00 37 1011.4
20260505235220 72 304 2.0 5.0 0.00 0.24 0.00 36 1011.4
20260505235005 71 154 4.0 7.0 0.00 0.24 0.00 37 1011.4
20260505234959 71 154 4.0 7.0 0.00 0.24 0.00 37 1011.4
20260505234903 71 154 4.0 7.0 0.00 0.24 0.00 37 1011.4
20260505234801 71 154 4.0 7.0 0.00 0.24 0.00 37 1011.5
20260505234646 71 136 4.0 7.0 0.00 0.24 0.00 37 1011.5
20260505234543 71 136 4.0 7.0 0.00 0.24 0.00 36 1011.5
20260505234500 71 135 4.0 8.0 0.00 0.24 0.00 36 1011.5
20260505234444 71 134 4.0 9.0 0.00 0.24 0.00 36 1011.5
20260505234350 71 143 4.0 9.0 0.00 0.24 0.00 36 1011.5
20260505234346 71 177 4.0 9.0 0.00 0.24 0.00 36 1011.5
20260505234141 71 156 4.0 9.0 0.00 0.24 0.00 37 1011.5
20260505234041 71 204 4.0 9.0 0.00 0.24 0.00 37 1011.5
20260505234000 71 213 3.0 9.0 0.00 0.24 0.00 37 1011.5
20260505233941 71 236 3.0 9.0 0.00 0.24 0.00 37 1011.5
20260505233840 71 238 3.0 9.0 0.00 0.24 0.00 37 1011.5
20260505233748 71 314 3.0 9.0 0.00 0.24 0.00 36 1011.5
20260505233744 71 274 3.0 9.0 0.00 0.24 0.00 36 1011.5
20260505233549 72 261 3.0 6.0 0.00 0.24 0.00 36 1011.5
20260505233545 72 316 3.0 9.0 0.00 0.24 0.00 36 1011.5
20260505233540 72 309 3.0 9.0 0.00 0.24 0.00 36 1011.5
20260505233336 72 335 3.0 6.0 0.00 0.24 0.00 36 1011.5
20260505233236 72 241 3.0 6.0 0.00 0.24 0.00 35 1011.6
20260505233136 72 19 3.0 5.0 0.00 0.24 0.00 36 1011.6
20260505233036 72 335 3.0 5.0 0.00 0.24 0.00 37 1011.6
20260505232936 72 292 3.0 5.0 0.00 0.24 0.00 37 1011.6
20260505232836 72 163 3.0 5.0 0.00 0.24 0.00 37 1011.6
20260505232736 72 274 3.0 5.0 0.00 0.24 0.00 36 1011.6
20260505232633 72 299 3.0 5.0 0.00 0.24 0.00 37 1011.6
20260505232533 72 240 3.0 5.0 0.00 0.24 0.00 37 1011.6
20260505232500 72 292 3.0 6.0 0.00 0.24 0.00 37 1011.6
20260505232433 71 317 3.0 6.0 0.00 0.24 0.00 37 1011.6
20260505232333 71 269 3.0 6.0 0.00 0.24 0.00 37 1011.6
20260505232233 71 211 3.0 6.0 0.00 0.24 0.00 37 1011.6
20260505232129 71 25 3.0 6.0 0.00 0.24 0.00 37 1011.6
20260505232028 72 87 3.0 6.0 0.00 0.24 0.00 36 1011.6
20260505232000 71 75 3.0 6.0 0.00 0.24 0.00 36 1011.6
20260505231926 72 335 3.0 6.0 0.00 0.24 0.00 36 1011.6
20260505231826 71 201 3.0 6.0 0.00 0.24 0.00 35 1011.8
20260505231724 71 14 3.0 6.0 0.00 0.24 0.00 36 1011.8
20260505231628 71 14 3.0 6.0 0.00 0.24 0.00 35 1011.8
20260505231623 71 67 3.0 5.0 0.00 0.24 0.00 36 1011.8
20260505231457 71 266 3.0 5.0 0.00 0.24 0.00 35 1011.8
20260505231415 71 6 3.0 5.0 0.00 0.24 0.00 35 1011.8
20260505231310 71 75 3.0 5.0 0.00 0.24 0.00 36 1011.8
20260505231208 71 117 3.0 5.0 0.00 0.24 0.00 35 1011.8
20260505231109 71 91 3.0 5.0 0.00 0.24 0.00 36 1011.8
20260505231008 71 227 3.0 5.0 0.00 0.24 0.00 36 1011.8
20260505230957 71 251 3.0 5.0 0.00 0.24 0.00 36 1011.8
20260505230909 71 85 3.0 5.0 0.00 0.24 0.00 36 1011.8
20260505230803 71 155 3.0 5.0 0.00 0.24 0.00 37 1011.8
20260505230703 71 143 3.0 5.0 0.00 0.24 0.00 36 1011.8
20260505230603 71 304 3.0 7.0 0.00 0.24 0.00 37 1011.8
20260505230512 71 251 3.0 7.0 0.00 0.24 0.00 37 1011.8
20260505230508 71 168 3.0 7.0 0.00 0.24 0.00 37 1011.8
20260505230503 71 167 3.0 7.0 0.00 0.24 0.00 37 1011.8
20260505230258 71 191 3.0 7.0 0.00 0.24 0.00 37 1011.9
20260505230159 71 100 3.0 7.0 0.00 0.24 0.00 36 1011.9
20260505230055 71 138 3.0 7.0 0.00 0.24 0.00 36 1011.9
20260505225954 71 165 3.0 7.0 0.00 0.24 0.00 36 1011.9
20260505225850 71 119 3.0 7.0 0.00 0.24 0.00 37 1011.9
20260505225751 71 62 3.0 7.0 0.00 0.24 0.00 37 1011.9
20260505225646 71 143 3.0 7.0 0.00 0.24 0.00 37 1011.9
20260505225545 70 130 3.0 7.0 0.00 0.24 0.00 38 1011.9
20260505225443 70 84 3.0 7.0 0.00 0.24 0.00 37 1011.9
20260505225438 70 305 3.0 7.0 0.00 0.24 0.00 37 1011.9
20260505225233 70 272 3.0 7.0 0.00 0.24 0.00 37 1011.9
20260505225134 70 233 3.0 7.0 0.00 0.24 0.00 38 1011.9
20260505225047 70 278 3.0 6.0 0.00 0.24 0.00 38 1011.9
20260505225043 70 294 3.0 7.0 0.00 0.24 0.00 38 1011.9
20260505225038 70 314 3.0 7.0 0.00 0.24 0.00 38 1011.9
20260505224833 70 317 3.0 6.0 0.00 0.24 0.00 38 1011.9
20260505224733 70 234 3.0 6.0 0.00 0.24 0.00 38 1012.0
20260505224638 69 275 3.0 6.0 0.00 0.24 0.00 38 1012.0
20260505224634 70 198 3.0 6.0 0.00 0.24 0.00 38 1012.0
20260505224450 69 325 3.0 6.0 0.00 0.24 0.00 38 1012.0
20260505224428 69 280 3.0 6.0 0.00 0.24 0.00 39 1012.0
20260505224338 69 112 3.0 6.0 0.00 0.24 0.00 39 1012.0
20260505224334 69 174 3.0 6.0 0.00 0.24 0.00 39 1012.0
20260505224135 69 40 3.0 6.0 0.00 0.24 0.00 39 1012.0
20260505224131 69 110 3.0 6.0 0.00 0.24 0.00 39 1012.0
20260505223949 69 350 3.0 5.0 0.00 0.24 0.00 39 1012.0
20260505223926 69 34 3.0 5.0 0.00 0.24 0.00 39 1012.0
20260505223826 69 143 3.0 5.0 0.00 0.24 0.00 39 1012.0
20260505223723 69 111 3.0 5.0 0.00 0.24 0.00 39 1012.0
20260505223651 69 96 3.0 5.0 0.00 0.24 0.00 38 1012.0
20260505223647 69 43 3.0 5.0 0.00 0.24 0.00 39 1012.0
20260505223642 69 96 3.0 6.0 0.00 0.24 0.00 40 1012.1
20260505223638 69 93 3.0 5.0 0.00 0.24 0.00 39 1012.0
20260505223528 69 57 3.0 5.0 0.00 0.24 0.00 38 1012.0
20260505223222 69 157 3.0 8.0 0.00 0.24 0.00 39 1012.1
20260505223218 69 139 3.0 8.0 0.00 0.24 0.00 40 1012.1
20260505223118 69 12 3.0 8.0 0.00 0.24 0.00 39 1012.1
20260505223055 69 124 3.0 8.0 0.00 0.24 0.00 40 1012.1
20260505222913 69 194 3.0 8.0 0.00 0.24 0.00 39 1012.1
20260505222809 69 260 3.0 8.0 0.00 0.24 0.00 39 1012.1
20260505222708 69 272 3.0 8.0 0.00 0.24 0.00 40 1012.1
20260505222608 69 286 3.0 8.0 0.00 0.24 0.00 39 1012.1
20260505222506 69 277 3.0 8.0 0.00 0.24 0.00 39 1012.1
20260505222450 69 282 3.0 8.0 0.00 0.24 0.00 40 1012.1
20260505222404 69 294 3.0 8.0 0.00 0.24 0.00 39 1012.1
20260505222313 69 234 3.0 9.0 0.00 0.24 0.00 40 1012.1
20260505222309 69 48 3.0 8.0 0.00 0.24 0.00 39 1012.1
20260505222103 69 137 3.0 9.0 0.00 0.24 0.00 41 1012.1
20260505222003 69 59 4.0 9.0 0.00 0.24 0.00 40 1012.1
20260505221949 69 58 4.0 9.0 0.00 0.24 0.00 39 1012.1
20260505221903 69 172 4.0 9.0 0.00 0.24 0.00 40 1012.1
20260505221803 69 352 4.0 9.0 0.00 0.24 0.00 40 1012.5
20260505221658 69 155 4.0 9.0 0.00 0.24 0.00 41 1012.5
20260505221558 69 211 4.0 9.0 0.00 0.24 0.00 41 1012.5
20260505221443 69 212 4.0 9.0 0.00 0.24 0.00 40 1012.5
20260505221349 69 269 4.0 9.0 0.00 0.24 0.00 40 1012.5
20260505221243 69 302 4.0 9.0 0.00 0.24 0.00 41 1012.5
20260505221143 69 252 4.0 7.0 0.00 0.24 0.00 40 1012.5
20260505221044 69 259 4.0 9.0 0.00 0.24 0.00 40 1012.5
20260505220944 68 277 4.0 9.0 0.00 0.24 0.00 41 1012.5
20260505220843 68 143 4.0 10.0 0.00 0.24 0.00 42 1012.5
20260505220743 68 120 4.0 12.0 0.00 0.24 0.00 41 1012.5
20260505220643 68 172 4.0 12.0 0.00 0.24 0.00 41 1012.5
20260505220543 68 210 4.0 12.0 0.00 0.24 0.00 42 1012.5
20260505220444 67 148 4.0 12.0 0.00 0.24 0.00 44 1012.5
20260505220343 67 61 4.0 12.0 0.00 0.24 0.00 42 1012.5
20260505220243 67 296 4.0 12.0 0.00 0.24 0.00 41 1012.6
20260505220143 67 85 4.0 12.0 0.00 0.24 0.00 41 1012.6
20260505220043 67 292 4.0 12.0 0.00 0.24 0.00 42 1012.6
20260505215943 68 301 3.0 12.0 0.00 0.24 0.00 41 1012.6
20260505215843 68 287 3.0 12.0 0.00 0.24 0.00 41 1012.6
20260505215752 68 262 3.0 8.0 0.00 0.24 0.00 41 1012.6
20260505215748 68 272 3.0 8.0 0.00 0.24 0.00 41 1012.6
20260505215543 68 285 3.0 8.0 0.00 0.24 0.00 41 1012.6
20260505215443 67 305 3.0 6.0 0.00 0.24 0.00 42 1012.6
20260505215343 67 283 3.0 6.0 0.00 0.24 0.00 42 1012.6
20260505215245 67 272 3.0 6.0 0.00 0.24 0.00 42 1012.6
20260505215240 67 306 3.0 6.0 0.00 0.24 0.00 43 1012.6
20260505215049 67 236 4.0 6.0 0.00 0.24 0.00 44 1012.6
20260505215045 67 307 3.0 6.0 0.00 0.24 0.00 44 1012.6
20260505215040 67 216 4.0 6.0 0.00 0.24 0.00 44 1012.6
20260505214836 67 261 4.0 6.0 0.00 0.24 0.00 44 1012.6
20260505214736 67 313 4.0 6.0 0.00 0.24 0.00 44 1012.7
20260505214636 67 277 4.0 7.0 0.00 0.24 0.00 44 1012.7
20260505214536 67 27 4.0 7.0 0.00 0.24 0.00 43 1012.7
20260505214442 67 27 4.0 7.0 0.00 0.24 0.00 43 1012.7
20260505214438 67 26 4.0 9.0 0.00 0.24 0.00 44 1012.7
20260505214434 67 26 4.0 9.0 0.00 0.24 0.00 44 1012.7
20260505214228 67 283 4.0 9.0 0.00 0.24 0.00 43 1012.7
20260505214128 67 312 4.0 9.0 0.00 0.24 0.00 43 1012.7
20260505214029 67 33 4.0 9.0 0.00 0.24 0.00 44 1012.7
20260505213946 68 305 3.0 9.0 0.00 0.24 0.00 43 1012.7
20260505213942 67 309 3.0 9.0 0.00 0.24 0.00 44 1012.7
20260505213929 67 323 3.0 9.0 0.00 0.24 0.00 44 1012.7
20260505213828 67 309 3.0 9.0 0.00 0.24 0.00 43 1012.7
20260505213818 67 53 3.0 9.0 0.00 0.24 0.00 43 1012.7
20260505213628 67 46 3.0 9.0 0.00 0.24 0.00 43 1012.7
20260505213547 68 327 3.0 9.0 0.00 0.24 0.00 43 1012.7
20260505213437 68 236 3.0 6.0 0.00 0.24 0.00 41 1012.9
20260505213433 68 320 3.0 5.0 0.00 0.24 0.00 42 1012.7
20260505213228 68 136 3.0 6.0 0.00 0.24 0.00 42 1012.9
20260505213128 67 122 3.0 8.0 0.00 0.24 0.00 43 1012.9
20260505213040 67 63 3.0 8.0 0.00 0.24 0.00 45 1012.9
20260505213035 67 96 3.0 8.0 0.00 0.24 0.00 43 1012.9
20260505213030 67 118 3.0 8.0 0.00 0.24 0.00 44 1012.9
20260505212826 67 51 3.0 8.0 0.00 0.24 0.00 44 1012.9
20260505212736 67 194 3.0 8.0 0.00 0.24 0.00 43 1012.9
20260505212732 67 142 3.0 8.0 0.00 0.24 0.00 44 1012.9
20260505212553 67 200 3.0 9.0 0.00 0.24 0.00 44 1012.9
20260505212526 67 93 3.0 8.0 0.00 0.24 0.00 44 1012.9
20260505212441 67 196 3.0 8.0 0.00 0.24 0.00 44 1012.9
20260505212437 67 27 3.0 9.0 0.00 0.24 0.00 43 1012.9
20260505212433 67 191 3.0 9.0 0.00 0.24 0.00 43 1012.9
20260505212428 67 77 3.0 9.0 0.00 0.24 0.00 45 1012.9
20260505212138 67 143 3.0 9.0 0.00 0.24 0.00 44 1012.9
20260505212134 67 165 3.0 9.0 0.00 0.24 0.00 43 1012.9
20260505212128 67 108 3.0 9.0 0.00 0.24 0.00 43 1012.9
20260505211816 67 234 3.0 9.0 0.00 0.24 0.00 44 1012.9
20260505211715 67 22 3.0 9.0 0.00 0.24 0.00 43 1012.9
20260505211615 67 66 3.0 9.0 0.00 0.24 0.00 44 1012.9
20260505211513 67 165 3.0 9.0 0.00 0.24 0.00 44 1012.9
20260505211439 67 191 3.0 9.0 0.00 0.24 0.00 44 1012.9
20260505211413 67 195 3.0 9.0 0.00 0.24 0.00 44 1012.9
20260505211311 67 189 3.0 9.0 0.00 0.24 0.00 43 1012.9
20260505211205 67 185 3.0 9.0 0.00 0.24 0.00 43 1012.9
20260505211106 67 101 3.0 9.0 0.00 0.24 0.00 45 1012.9
20260505211005 67 131 3.0 9.0 0.00 0.24 0.00 44 1012.9
20260505210940 67 154 3.0 7.0 0.00 0.24 0.00 44 1012.9
20260505210906 67 245 3.0 7.0 0.00 0.24 0.00 44 1012.9
20260505210806 67 69 3.0 7.0 0.00 0.24 0.00 45 1012.9
20260505210706 67 113 3.0 7.0 0.00 0.24 0.00 44 1012.9
20260505210605 67 175 3.0 7.0 0.00 0.24 0.00 44 1012.9
20260505210506 67 183 3.0 7.0 0.00 0.24 0.00 44 1012.9
20260505210439 67 182 3.0 7.0 0.00 0.24 0.00 44 1012.9
20260505210406 67 173 3.0 7.0 0.00 0.24 0.00 44 1012.9
20260505210306 67 223 3.0 8.0 0.00 0.24 0.00 44 1013.0
20260505210206 67 123 3.0 8.0 0.00 0.24 0.00 45 1013.0
20260505210106 67 194 3.0 8.0 0.00 0.24 0.00 45 1013.0
20260505210006 66 84 3.0 8.0 0.00 0.24 0.00 46 1013.0
20260505205940 66 111 3.0 8.0 0.00 0.24 0.00 46 1013.0
20260505205905 66 58 3.0 8.0 0.00 0.24 0.00 46 1013.0
20260505205806 66 183 3.0 8.0 0.00 0.24 0.00 44 1013.0
20260505205710 66 172 3.0 8.0 0.00 0.24 0.00 47 1013.0
20260505205706 66 89 3.0 8.0 0.00 0.24 0.00 45 1013.0
20260505205654 66 142 3.0 8.0 0.00 0.24 0.00 46 1013.0
20260505205650 66 161 3.0 8.0 0.00 0.24 0.00 46 1013.0
20260505205403 66 146 3.0 8.0 0.00 0.24 0.00 46 1013.0
20260505205305 66 43 3.0 8.0 0.00 0.24 0.00 48 1013.0
20260505205201 66 13 3.0 8.0 0.00 0.24 0.00 46 1013.0
20260505205155 66 342 3.0 8.0 0.00 0.24 0.00 46 1013.0
20260505204951 66 340 3.0 8.0 0.00 0.24 0.00 46 1013.0
20260505204940 66 357 3.0 8.0 0.00 0.24 0.00 46 1013.0
20260505204850 66 47 3.0 6.0 0.00 0.24 0.00 46 1013.0
20260505204751 66 58 3.0 6.0 0.00 0.24 0.00 47 1013.1
20260505204651 65 71 3.0 6.0 0.00 0.24 0.00 47 1013.1
20260505204551 65 181 3.0 6.0 0.00 0.24 0.00 46 1013.1
20260505204500 65 231 3.0 6.0 0.00 0.24 0.00 48 1013.1
20260505204456 65 205 3.0 6.0 0.00 0.24 0.00 47 1013.1
20260505204450 65 175 3.0 6.0 0.00 0.24 0.00 47 1013.1
20260505204245 65 253 3.0 6.0 0.00 0.24 0.00 46 1013.1
20260505204146 65 130 3.0 6.0 0.00 0.24 0.00 48 1013.1
20260505204046 65 49 3.0 6.0 0.00 0.24 0.00 48 1013.1
20260505203945 65 89 3.0 6.0 0.00 0.24 0.00 47 1013.1
20260505203940 65 96 3.0 5.0 0.00 0.24 0.00 47 1013.1
20260505203846 65 192 3.0 5.0 0.00 0.24 0.00 46 1013.1
20260505203740 65 85 3.0 5.0 0.00 0.24 0.00 46 1013.1
20260505203651 65 10 3.0 9.0 0.00 0.24 0.00 47 1013.1
20260505203647 65 92 3.0 5.0 0.00 0.24 0.00 47 1013.1
20260505203440 65 177 3.0 9.0 0.00 0.24 0.00 47 1013.1
20260505203341 65 194 3.0 9.0 0.00 0.24 0.00 47 1013.1
20260505203240 65 222 3.0 9.0 0.00 0.24 0.00 46 1013.1
20260505203138 65 204 3.0 9.0 0.00 0.24 0.00 47 1013.1
20260505203039 65 178 3.0 9.0 0.00 0.24 0.00 48 1013.1
20260505202938 65 143 3.0 9.0 0.00 0.24 0.00 48 1013.1
20260505202839 65 90 3.0 9.0 0.00 0.24 0.00 47 1013.1
20260505202738 65 123 3.0 9.0 0.00 0.24 0.00 48 1013.1
20260505202638 65 104 3.0 9.0 0.00 0.24 0.00 48 1013.1
20260505202608 65 161 3.0 7.0 0.00 0.25 0.00 48 1013.1
20260505202604 65 138 3.0 7.0 0.00 0.24 0.00 48 1013.1
20260505202455 65 228 3.0 7.0 0.00 0.27 0.00 48 1013.1
20260505202447 65 95 3.0 7.0 0.00 0.24 0.00 48 1013.1
20260505202217 65 38 3.0 7.0 0.00 0.28 0.00 47 1013.1
20260505202136 65 174 3.0 7.0 0.00 0.27 0.00 48 1013.1
20260505202045 65 300 3.0 7.0 0.00 0.28 0.00 48 1013.1
20260505201942 65 38 3.0 7.0 0.00 0.28 0.00 47 1013.1
20260505201836 65 44 3.0 7.0 0.00 0.29 0.00 49 1013.1
20260505201736 65 69 3.0 7.0 0.00 0.29 0.00 49 1013.3
20260505201634 65 172 3.0 7.0 0.00 0.29 0.00 48 1013.3
20260505201528 65 237 3.0 7.0 0.00 0.29 0.00 48 1013.3
20260505201437 65 260 3.0 6.0 0.00 0.29 0.00 49 1013.3
20260505201429 65 268 3.0 6.0 0.00 0.29 0.00 49 1013.3
20260505201328 65 84 3.0 6.0 0.00 0.29 0.00 49 1013.3
20260505201228 65 49 3.0 6.0 0.00 0.29 0.00 49 1013.3
20260505201128 65 103 3.0 6.0 0.00 0.29 0.00 50 1013.3
20260505201028 64 155 3.0 6.0 0.00 0.29 0.00 48 1013.3
20260505200928 64 117 3.0 6.0 0.00 0.29 0.00 51 1013.3
20260505200828 64 117 3.0 6.0 0.00 0.29 0.00 49 1013.3
20260505200729 64 90 3.0 6.0 0.00 0.29 0.00 49 1013.3
20260505200628 64 112 3.0 6.0 0.00 0.29 0.00 51 1013.3
20260505200528 64 108 3.0 6.0 0.00 0.29 0.00 50 1013.3
20260505200441 64 184 2.0 5.0 0.00 0.29 0.00 51 1013.4
20260505200437 64 112 3.0 6.0 0.00 0.29 0.00 51 1013.3
20260505200426 64 122 3.0 6.0 0.00 0.29 0.00 51 1013.3
20260505200326 64 169 3.0 6.0 0.00 0.29 0.00 50 1013.4
20260505200313 64 187 3.0 5.0 0.00 0.29 0.00 51 1013.4
20260505200125 64 145 3.0 5.0 0.00 0.29 0.00 51 1013.4
20260505200042 64 193 3.0 5.0 0.00 0.29 0.00 50 1013.4
20260505195921 64 196 2.0 5.0 0.00 0.29 0.00 52 1013.4
20260505195820 63 19 2.0 5.0 0.00 0.29 0.00 51 1013.4
20260505195721 63 157 2.0 5.0 0.00 0.29 0.00 52 1013.4
20260505195620 63 173 2.0 5.0 0.00 0.29 0.00 52 1013.4
20260505195520 63 123 2.0 5.0 0.00 0.29 0.00 54 1013.4
20260505195437 63 81 2.0 5.0 0.00 0.29 0.00 53 1013.4
20260505195420 63 105 2.0 5.0 0.00 0.29 0.00 53 1013.4
20260505195319 63 115 2.0 5.0 0.00 0.29 0.00 53 1013.4
20260505195216 63 152 2.0 4.0 0.00 0.29 0.00 54 1013.4
20260505195208 62 152 4.0 4.0 0.00 0.29 0.00 54 1013.4
20260505195113 63 359 2.0 4.0 0.00 0.29 0.00 54 1013.4
20260505195043 63 213 4.0 4.0 0.00 0.29 0.00 54 1013.4
20260505194909 62 255 4.0 5.0 0.00 0.29 0.00 55 1013.4
20260505194818 62 139 4.0 5.0 0.00 0.29 0.00 54 1013.5
20260505194814 62 144 4.0 5.0 0.00 0.29 0.00 55 1013.5
20260505194601 62 273 4.0 6.0 0.00 0.29 0.00 53 1013.5
20260505194459 62 134 4.0 7.0 0.00 0.29 0.00 53 1013.5
20260505194437 62 135 4.0 7.0 0.00 0.29 0.00 53 1013.5
20260505194356 62 165 4.0 7.0 0.00 0.29 0.00 53 1013.5
20260505194256 62 315 4.0 7.0 0.00 0.29 0.00 53 1013.5
20260505194155 62 313 4.0 8.0 0.00 0.29 0.00 53 1013.5
20260505194056 62 264 4.0 8.0 0.00 0.29 0.00 53 1013.5
20260505193955 62 6 3.0 8.0 0.00 0.29 0.00 54 1013.5
20260505193937 62 6 3.0 8.0 0.00 0.29 0.00 55 1013.5
20260505193848 62 294 3.0 8.0 0.00 0.29 0.00 54 1013.5
20260505193755 62 35 3.0 8.0 0.00 0.29 0.00 54 1013.5
20260505193751 62 258 3.0 8.0 0.00 0.29 0.00 53 1013.5
20260505193545 62 90 3.0 8.0 0.00 0.29 0.00 53 1013.5
20260505193446 62 119 3.0 8.0 0.00 0.29 0.00 54 1013.5
20260505193434 62 90 3.0 8.0 0.00 0.29 0.00 54 1013.5
20260505193355 62 300 3.0 6.0 0.00 0.29 0.00 54 1013.4
20260505193351 62 14 3.0 8.0 0.00 0.29 0.00 54 1013.5
20260505193146 62 265 3.0 6.0 0.00 0.29 0.00 54 1013.4
20260505193043 62 194 3.0 6.0 0.00 0.29 0.00 54 1013.4
20260505192943 62 180 3.0 6.0 0.00 0.29 0.00 55 1013.4
20260505192934 62 166 3.0 6.0 0.00 0.29 0.00 56 1013.4
20260505192843 62 189 3.0 6.0 0.00 0.29 0.00 55 1013.4
20260505192743 62 143 3.0 6.0 0.00 0.29 0.00 56 1013.4
20260505192643 62 181 3.0 6.0 0.00 0.29 0.00 56 1013.4
20260505192543 61 144 3.0 6.0 0.00 0.29 0.00 56 1013.4
20260505192443 61 96 3.0 6.0 0.00 0.29 0.00 58 1013.4
20260505192434 61 72 3.0 6.0 0.00 0.29 0.00 58 1013.4
20260505192343 61 216 3.0 6.0 0.00 0.29 0.00 59 1013.4
20260505192243 61 17 3.0 6.0 0.00 0.29 0.00 57 1013.4
20260505192145 61 23 3.0 6.0 0.00 0.29 0.00 57 1013.4
20260505192104 61 123 2.0 6.0 0.00 0.29 0.00 57 1013.4
20260505192100 61 292 2.0 6.0 0.00 0.29 0.00 56 1013.4
20260505192055 61 38 3.0 6.0 0.00 0.29 0.00 57 1013.4
20260505191945 61 122 2.0 6.0 0.00 0.29 0.00 57 1013.4
20260505191741 61 308 2.0 6.0 0.00 0.29 0.00 56 1013.4
20260505191641 60 326 2.0 5.0 0.00 0.29 0.00 58 1013.4
20260505191540 60 115 2.0 5.0 0.00 0.29 0.00 58 1013.4
20260505191438 60 96 2.0 5.0 0.00 0.29 0.00 59 1013.4
20260505191432 60 96 2.0 5.0 0.00 0.29 0.00 60 1013.4
20260505191358 59 179 3.0 9.0 0.00 0.29 0.00 58 1013.4
20260505191354 60 90 2.0 5.0 0.00 0.29 0.00 59 1013.4
20260505191350 60 49 3.0 5.0 0.00 0.29 0.00 60 1013.4
20260505191346 60 90 2.0 5.0 0.00 0.29 0.00 58 1013.4
20260505191235 60 9 2.0 5.0 0.00 0.29 0.00 58 1013.4
20260505191126 60 100 3.0 5.0 0.00 0.29 0.00 59 1013.4
20260505191122 59 122 3.0 5.0 0.00 0.29 0.00 59 1013.4
20260505191117 59 179 3.0 9.0 0.00 0.29 0.00 58 1013.4
20260505191113 60 52 2.0 5.0 0.00 0.29 0.00 59 1013.4
20260505191108 60 57 3.0 4.0 0.00 0.29 0.00 60 1013.4
20260505190643 59 121 3.0 5.0 0.00 0.29 0.00 59 1013.4
20260505190638 59 161 3.0 5.0 0.00 0.29 0.00 59 1013.4
20260505190330 59 178 3.0 10.0 0.00 0.29 0.00 58 1013.4
20260505190230 59 178 3.0 10.0 0.00 0.29 0.00 58 1013.4
20260505190138 59 296 3.0 10.0 0.00 0.29 0.00 59 1013.4
20260505190134 59 212 3.0 10.0 0.00 0.29 0.00 58 1013.4
20260505185928 59 296 2.0 10.0 0.00 0.29 0.00 60 1013.4
20260505185828 59 80 2.0 10.0 0.00 0.29 0.00 59 1013.4
20260505185723 59 65 2.0 10.0 0.00 0.29 0.00 59 1013.4
20260505185618 59 63 2.0 10.0 0.00 0.29 0.00 59 1013.4
20260505185516 59 315 2.0 10.0 0.00 0.29 0.00 59 1013.4
20260505185427 59 317 2.0 10.0 0.00 0.29 0.00 59 1013.4
20260505185415 59 315 2.0 6.0 0.00 0.29 0.00 60 1013.4
20260505185325 59 296 2.0 5.0 0.00 0.29 0.00 60 1013.4
20260505185321 59 221 2.0 5.0 0.00 0.29 0.00 60 1013.4
20260505185101 59 278 2.0 5.0 0.00 0.29 0.00 61 1013.4
20260505185001 58 192 2.0 5.0 0.00 0.29 0.00 62 1013.4
20260505184927 58 194 2.0 5.0 0.00 0.29 0.00 62 1013.4
20260505184901 58 194 2.0 5.0 0.00 0.29 0.00 62 1013.4
20260505184758 58 119 2.0 5.0 0.00 0.29 0.00 63 1013.5
20260505184701 58 82 2.0 5.0 0.00 0.29 0.00 65 1013.5
20260505184656 57 148 2.0 5.0 0.00 0.29 0.00 64 1013.5
20260505184558 58 36 2.0 5.0 0.00 0.29 0.00 64 1013.5
20260505184530 57 213 2.0 5.0 0.00 0.29 0.00 64 1013.5
20260505184358 57 142 2.0 5.0 0.00 0.29 0.00 63 1013.5
20260505184251 57 157 2.0 5.0 0.00 0.29 0.00 63 1013.5
20260505184151 57 175 2.0 5.0 0.00 0.29 0.00 63 1013.5
20260505184051 57 174 2.0 5.0 0.00 0.29 0.00 64 1013.5
20260505183958 57 197 3.0 5.0 0.00 0.29 0.00 63 1013.5
20260505183953 57 196 3.0 5.0 0.00 0.29 0.00 63 1013.5
20260505183948 57 216 3.0 5.0 0.00 0.29 0.00 63 1013.5
20260505183738 57 275 3.0 5.0 0.00 0.29 0.00 62 1013.5
20260505183631 57 275 3.0 5.0 0.00 0.29 0.00 62 1013.5
20260505183530 57 297 3.0 5.0 0.00 0.29 0.00 62 1013.5
20260505183425 57 284 3.0 5.0 0.00 0.29 0.00 62 1013.5
20260505183326 57 29 3.0 6.0 0.00 0.29 0.00 62 1013.5
20260505183222 57 29 3.0 8.0 0.00 0.29 0.00 62 1013.5
20260505183123 57 342 3.0 8.0 0.00 0.29 0.00 63 1013.5
20260505183023 57 119 3.0 8.0 0.00 0.29 0.00 63 1013.5
20260505182918 57 195 2.0 8.0 0.00 0.29 0.00 63 1013.5
20260505182818 57 310 2.0 8.0 0.00 0.29 0.00 63 1013.5
20260505182718 57 294 2.0 8.0 0.00 0.29 0.00 62 1013.5
20260505182639 57 295 2.0 8.0 0.00 0.29 0.00 62 1013.5
20260505182635 57 47 2.0 8.0 0.00 0.29 0.00 63 1013.5
20260505182525 57 280 2.0 8.0 0.00 0.29 0.00 63 1013.5
20260505182520 57 246 2.0 8.0 0.00 0.29 0.00 62 1013.5
20260505182313 57 313 2.0 8.0 0.00 0.29 0.00 62 1013.5
20260505182225 57 315 2.0 7.0 0.00 0.29 0.00 63 1013.5
20260505182221 57 292 3.0 7.0 0.00 0.29 0.00 64 1013.5
20260505182217 57 324 2.0 7.0 0.00 0.29 0.00 63 1013.5
20260505182030 57 283 3.0 7.0 0.00 0.29 0.00 63 1013.5
20260505181908 57 248 3.0 5.0 0.00 0.29 0.00 64 1013.5
20260505181808 57 260 3.0 5.0 0.00 0.29 0.00 65 1013.3
20260505181708 57 344 3.0 5.0 0.00 0.29 0.00 65 1013.3
20260505181608 57 344 3.0 5.0 0.00 0.29 0.00 65 1013.3
20260505181503 57 344 3.0 6.0 0.00 0.29 0.00 66 1013.3
20260505181425 57 343 3.0 6.0 0.00 0.29 0.00 66 1013.3
20260505181403 57 344 3.0 6.0 0.00 0.29 0.00 66 1013.3
20260505181308 57 1 3.0 6.0 0.00 0.29 0.00 64 1013.3
20260505181304 57 344 3.0 6.0 0.00 0.29 0.00 65 1013.3
20260505181058 57 86 3.0 6.0 0.00 0.29 0.00 65 1013.3
20260505180958 57 51 2.0 6.0 0.00 0.29 0.00 65 1013.3
20260505180917 57 75 2.0 6.0 0.00 0.29 0.00 65 1013.3
20260505180858 57 81 2.0 6.0 0.00 0.29 0.00 65 1013.3
20260505180751 57 321 2.0 6.0 0.00 0.29 0.00 65 1013.3
20260505180651 56 166 2.0 6.0 0.00 0.29 0.00 64 1013.3
20260505180451 56 260 2.0 5.0 0.00 0.29 0.00 65 1013.3
20260505180417 56 253 2.0 5.0 0.00 0.29 0.00 65 1013.3
20260505180348 56 234 2.0 5.0 0.00 0.29 0.00 66 1013.3
20260505180248 56 208 2.0 5.0 0.00 0.29 0.00 67 1013.3
20260505180148 56 80 2.0 5.0 0.00 0.29 0.00 67 1013.3
20260505180058 56 268 3.0 5.0 0.00 0.29 0.00 69 1013.3
20260505180053 56 62 2.0 5.0 0.00 0.29 0.00 69 1013.3
20260505175914 56 267 3.0 5.0 0.00 0.29 0.00 70 1013.3
20260505175848 56 311 3.0 5.0 0.00 0.29 0.00 71 1013.3
20260505175758 56 43 3.0 5.0 0.00 0.29 0.00 72 1013.3
20260505175753 56 43 3.0 5.0 0.00 0.29 0.00 71 1013.3
20260505175557 56 16 3.0 5.0 0.00 0.29 0.00 71 1013.3
20260505175553 56 16 3.0 5.0 0.00 0.29 0.00 71 1013.3
20260505175414 56 56 3.0 5.0 0.00 0.29 0.00 71 1013.3
20260505175407 56 130 3.0 5.0 0.00 0.29 0.00 72 1013.3
20260505175403 56 155 3.0 6.0 0.00 0.29 0.00 72 1013.3
20260505175359 56 198 3.0 5.0 0.00 0.29 0.00 71 1013.3
20260505175048 56 154 3.0 6.0 0.00 0.29 0.00 71 1013.3
20260505174946 55 192 2.0 6.0 0.00 0.29 0.00 73 1013.3
20260505174914 55 111 2.0 6.0 0.00 0.29 0.00 75 1013.3
20260505174844 55 43 2.0 6.0 0.00 0.29 0.00 74 1013.3
20260505174748 55 336 2.0 6.0 0.00 0.29 0.00 74 1013.0
20260505174744 55 32 2.0 6.0 0.00 0.29 0.00 74 1013.0
20260505174538 55 76 2.0 6.0 0.00 0.29 0.00 75 1013.0
20260505174450 55 342 2.0 6.0 0.00 0.29 0.00 74 1013.0
20260505174446 55 20 2.0 6.0 0.00 0.29 0.00 75 1013.0
20260505174441 55 348 2.0 6.0 0.00 0.29 0.00 74 1013.0
20260505174237 55 342 2.0 6.0 0.00 0.29 0.00 74 1013.0
20260505174137 55 33 2.0 6.0 0.00 0.29 0.00 74 1013.0
20260505174036 54 161 2.0 6.0 0.00 0.29 0.00 74 1013.0
20260505173934 54 124 2.0 5.0 0.00 0.29 0.00 75 1013.0
20260505173906 54 147 2.0 5.0 0.00 0.29 0.00 74 1013.0
20260505173825 54 169 2.0 5.0 0.00 0.29 0.00 74 1013.0
20260505173733 54 215 2.0 5.0 0.00 0.29 0.00 73 1013.0
20260505173729 54 158 2.0 5.0 0.00 0.29 0.00 73 1013.0
20260505173523 54 215 2.0 5.0 0.00 0.29 0.00 73 1013.0
20260505173420 54 163 2.0 5.0 0.00 0.29 0.00 74 1013.0
20260505173407 54 164 2.0 5.0 0.00 0.29 0.00 75 1013.0
20260505173321 54 145 2.0 5.0 0.00 0.29 0.00 75 1013.0
20260505173218 54 181 2.0 5.0 0.00 0.29 0.00 75 1013.0
20260505173118 53 169 2.0 5.0 0.00 0.29 0.00 75 1013.0
20260505173018 53 170 2.0 5.0 0.00 0.29 0.00 75 1013.0
20260505172924 53 25 2.0 4.0 0.00 0.29 0.00 77 1013.0
20260505172918 53 171 2.0 5.0 0.00 0.29 0.00 75 1013.0
20260505172907 53 170 2.0 5.0 0.00 0.29 0.00 75 1013.0
20260505172818 53 176 2.0 5.0 0.00 0.29 0.00 75 1013.0
20260505172759 53 223 2.0 4.0 0.00 0.29 0.00 76 1013.0
20260505172618 53 166 2.0 4.0 0.00 0.29 0.00 77 1013.0
20260505172538 53 181 2.0 4.0 0.00 0.29 0.00 76 1013.0
20260505172534 53 22 2.0 4.0 0.00 0.29 0.00 77 1013.0
20260505172528 53 22 2.0 4.0 0.00 0.29 0.00 77 1013.0
20260505172213 53 181 2.0 4.0 0.00 0.29 0.00 76 1013.0
20260505172111 52 232 2.0 4.0 0.00 0.29 0.00 77 1013.0
20260505172010 52 302 2.0 4.0 0.00 0.29 0.00 77 1013.0
20260505171913 52 273 2.0 4.0 0.00 0.29 0.00 78 1013.0
20260505171907 52 274 2.0 4.0 0.00 0.29 0.00 78 1013.0
20260505171810 52 274 2.0 4.0 0.00 0.29 0.00 77 1013.0
20260505171710 52 280 2.0 4.0 0.00 0.29 0.00 77 1013.0
20260505171611 52 181 2.0 4.0 0.00 0.29 0.00 77 1013.0
20260505171510 52 181 2.0 4.0 0.00 0.29 0.00 77 1013.0
20260505171406 52 179 2.0 4.0 0.00 0.29 0.00 78 1013.0
20260505171309 52 178 2.0 4.0 0.00 0.29 0.00 78 1013.0
20260505171208 51 179 2.0 4.0 0.00 0.29 0.00 78 1013.0
20260505171106 51 179 2.0 4.0 0.00 0.29 0.00 78 1013.0
20260505171017 51 216 1.0 4.0 0.00 0.29 0.00 78 1013.0
20260505171013 51 183 1.0 4.0 0.00 0.29 0.00 78 1013.0
20260505171009 51 181 1.0 4.0 0.00 0.29 0.00 78 1013.0
20260505171004 51 218 1.0 4.0 0.00 0.29 0.00 78 1013.0
20260505170653 51 180 1.0 4.0 0.00 0.29 0.00 78 1013.0
20260505170554 51 178 1.0 4.0 0.00 0.29 0.00 78 1013.0
20260505170451 51 225 1.0 4.0 0.00 0.29 0.00 79 1013.0
20260505170348 51 225 1.0 4.0 0.00 0.29 0.00 78 1013.0
20260505170248 51 227 1.0 4.0 0.00 0.29 0.00 78 1012.9
20260505170145 51 193 1.0 4.0 0.00 0.29 0.00 80 1012.9
20260505170133 51 212 1.0 4.0 0.00 0.29 0.00 80 1012.9
20260505170128 51 115 1.0 3.0 0.00 0.29 0.00 80 1012.9
20260505165835 51 121 1.0 3.0 0.00 0.29 0.00 80 1012.9
20260505165735 50 121 1.0 3.0 0.00 0.29 0.00 80 1012.9
20260505165635 50 117 1.0 3.0 0.00 0.29 0.00 80 1012.9
20260505165535 50 117 1.0 3.0 0.00 0.29 0.00 80 1012.9
20260505165436 50 117 1.0 3.0 0.00 0.29 0.00 80 1012.9
20260505165330 50 185 1.0 3.0 0.00 0.29 0.00 80 1012.9
20260505165223 50 185 1.0 3.0 0.00 0.29 0.00 80 1012.9
20260505165114 50 185 1.0 3.0 0.00 0.29 0.00 80 1012.9
20260505165006 50 185 2.0 3.0 0.00 0.29 0.00 80 1012.9
20260505164906 50 185 2.0 3.0 0.00 0.29 0.00 80 1012.9
20260505164848 50 185 2.0 3.0 0.00 0.29 0.00 80 1012.9
20260505164803 50 185 2.0 4.0 0.00 0.29 0.00 81 1012.9
20260505164703 49 185 2.0 4.0 0.00 0.29 0.00 81 1012.9
20260505164621 49 185 2.0 4.0 0.00 0.29 0.00 80 1012.9
20260505164600 49 185 2.0 4.0 0.00 0.29 0.00 80 1012.9
20260505164500 49 185 2.0 4.0 0.00 0.29 0.00 80 1012.9
20260505164454 49 185 2.0 4.0 0.00 0.29 0.00 80 1012.9
20260505164216 49 185 2.0 4.0 0.00 0.29 0.00 80 1012.9
20260505164115 49 185 2.0 4.0 0.00 0.29 0.00 80 1012.9
20260505164008 49 185 2.0 4.0 0.00 0.29 0.00 80 1012.9
20260505163906 49 174 2.0 4.0 0.00 0.29 0.00 81 1012.9
20260505163847 49 173 2.0 4.0 0.00 0.29 0.00 81 1012.9
20260505163806 49 174 2.0 4.0 0.00 0.29 0.00 81 1012.9
20260505163703 49 173 2.0 4.0 0.00 0.29 0.00 81 1012.9
20260505163600 49 173 2.0 4.0 0.00 0.29 0.00 81 1012.9
20260505163458 49 169 2.0 4.0 0.00 0.29 0.00 81 1012.9
20260505163347 49 168 2.0 4.0 0.00 0.29 0.00 81 1012.9
20260505163256 49 170 2.0 4.0 0.00 0.29 0.00 81 1012.8
20260505163153 49 169 2.0 4.0 0.00 0.29 0.00 81 1012.8
20260505163053 49 170 2.0 4.0 0.00 0.29 0.00 81 1012.8
20260505162948 49 170 2.0 4.0 0.00 0.29 0.00 81 1012.8
20260505162844 49 169 2.0 4.0 0.00 0.29 0.00 81 1012.8
20260505162746 49 119 2.0 4.0 0.00 0.29 0.00 81 1012.8
20260505162638 49 104 2.0 4.0 0.00 0.29 0.00 81 1012.8
20260505162538 48 104 2.0 4.0 0.00 0.29 0.00 81 1012.8
20260505162438 48 103 2.0 4.0 0.00 0.29 0.00 81 1012.8
20260505162352 48 112 2.0 3.0 0.00 0.29 0.00 81 1012.8
20260505162342 48 112 2.0 3.0 0.00 0.29 0.00 81 1012.8
20260505162139 48 112 2.0 4.0 0.00 0.29 0.00 81 1012.8
20260505162031 48 112 2.0 5.0 0.00 0.29 0.00 81 1012.8
20260505161929 48 112 2.0 5.0 0.00 0.29 0.00 81 1012.8
20260505161821 48 112 2.0 5.0 0.00 0.29 0.00 81 1012.6
20260505161725 48 112 2.0 5.0 0.00 0.29 0.00 81 1012.6
20260505161626 48 112 2.0 5.0 0.00 0.29 0.00 81 1012.6
20260505161523 48 161 2.0 5.0 0.00 0.29 0.00 81 1012.6
20260505161423 48 161 2.0 5.0 0.00 0.29 0.00 81 1012.6
20260505161320 48 173 2.0 5.0 0.00 0.29 0.00 81 1012.6
20260505161201 48 173 2.0 5.0 0.00 0.29 0.00 81 1012.6
20260505161100 48 197 2.0 5.0 0.00 0.30 0.00 81 1012.6
20260505161001 48 200 1.0 4.0 0.00 0.30 0.00 81 1012.6
20260505160900 48 200 1.0 4.0 0.00 0.30 0.00 81 1012.6
20260505160809 48 200 1.0 4.0 0.00 0.30 0.00 81 1012.6
20260505160744 48 200 1.0 4.0 0.00 0.30 0.00 81 1012.6
20260505160641 48 200 1.0 4.0 0.00 0.30 0.00 81 1012.6
20260505160538 48 206 1.0 4.0 0.00 0.30 0.00 81 1012.6
20260505160433 48 84 1.0 4.0 0.00 0.30 0.00 81 1012.6
20260505160309 48 83 1.0 4.0 0.00 0.30 0.00 81 1012.5
20260505160225 48 83 1.0 4.0 0.00 0.30 0.00 81 1012.5
20260505160125 48 83 1.0 4.0 0.00 0.30 0.00 81 1012.5
20260505153344 47 154 1.0 4.0 0.00 0.32 0.00 81 1012.1
20260505153211 47 153 1.0 4.0 0.00 0.32 0.00 81 1012.1
20260505153109 47 214 1.0 4.0 0.00 0.32 0.00 81 1012.1
20260505153005 47 228 1.0 3.0 0.00 0.32 0.00 81 1012.1
20260505152903 47 228 1.0 3.0 0.00 0.32 0.00 82 1012.1
20260505152803 47 280 1.0 3.0 0.00 0.32 0.00 81 1012.1
20260505152734 47 280 1.0 3.0 0.00 0.32 0.00 81 1012.1
20260505152702 47 280 1.0 3.0 0.00 0.32 0.00 81 1012.1
20260505152652 47 280 1.0 3.0 0.00 0.32 0.00 81 1012.1
20260505152446 46 280 1.0 3.0 0.00 0.32 0.00 81 1012.1
20260505152345 46 280 1.0 3.0 0.00 0.32 0.00 81 1012.1
20260505152252 46 283 1.0 3.0 0.00 0.32 0.00 82 1012.1
20260505152242 46 280 1.0 3.0 0.00 0.32 0.00 82 1012.1
20260505152038 46 283 1.0 3.0 0.00 0.32 0.00 82 1012.1
20260505151938 46 283 2.0 3.0 0.00 0.32 0.00 81 1012.1
20260505151832 46 283 2.0 3.0 0.00 0.32 0.00 81 1012.1
20260505151723 46 283 2.0 4.0 0.00 0.32 0.00 82 1012.0
20260505151623 46 263 2.0 4.0 0.00 0.32 0.00 82 1012.0
20260505151518 46 263 2.0 4.0 0.00 0.32 0.00 82 1012.0
20260505151415 46 291 2.0 4.0 0.00 0.32 0.00 82 1012.0
20260505151312 46 291 2.0 4.0 0.00 0.32 0.00 82 1012.0
20260505151211 46 291 2.0 4.0 0.00 0.32 0.00 82 1012.0
20260505151110 46 291 2.0 4.0 0.00 0.32 0.00 82 1012.0
20260505151019 46 287 0.0 4.0 0.00 0.32 0.00 82 1012.0
20260505151015 46 287 2.0 4.0 0.00 0.32 0.00 82 1012.0
20260505150810 46 287 0.0 4.0 0.00 0.32 0.00 82 1012.0
20260505150711 46 288 0.0 4.0 0.00 0.32 0.00 82 1012.0
20260505150610 46 288 0.0 4.0 0.00 0.32 0.00 82 1012.0
20260505150510 46 288 0.0 4.0 0.00 0.32 0.00 82 1012.0
20260505150411 46 297 0.0 4.0 0.00 0.32 0.00 82 1012.0
20260505150308 46 297 0.0 3.0 0.00 0.32 0.00 82 1011.9
20260505150224 46 270 0.0 3.0 0.00 0.32 0.00 82 1011.9
20260505150208 46 270 0.0 3.0 0.00 0.32 0.00 81 1011.9
20260505140653 45 27 1.0 2.0 0.00 0.32 0.00 81 1011.5
20260505140607 45 27 1.0 2.0 0.00 0.32 0.00 81 1011.5
20260505140543 45 27 1.0 2.0 0.00 0.32 0.00 81 1011.5
20260505140430 45 27 1.0 2.0 0.00 0.32 0.00 81 1011.5
20260505140337 45 27 1.0 4.0 0.00 0.32 0.00 81 1011.3
20260505140330 45 27 1.0 4.0 0.00 0.32 0.00 81 1011.3
20260505140324 45 27 1.0 4.0 0.00 0.32 0.00 81 1011.3
20260505130248 45 194 0.0 4.0 0.00 0.32 0.00 81 1010.7
20260505130150 45 193 0.0 3.0 0.00 0.32 0.00 81 1010.7
20260505130146 45 193 0.0 4.0 0.00 0.32 0.00 81 1010.7
20260505125035 45 193 0.0 2.0 0.00 0.32 0.00 81 1010.7
20260505125005 45 193 0.0 2.0 0.00 0.32 0.00 81 1010.7
20260505124930 45 193 0.0 2.0 0.00 0.32 0.00 81 1010.7
20260505124810 45 194 0.0 2.0 0.00 0.32 0.00 81 1010.7
20260505124706 45 193 0.0 2.0 0.00 0.32 0.00 81 1010.7
20260505124605 45 194 0.0 2.0 0.00 0.32 0.00 81 1010.7
20260505124505 45 194 0.0 2.0 0.00 0.32 0.00 81 1010.7
20260505124456 45 194 0.0 2.0 0.00 0.32 0.00 81 1010.7
20260505124405 45 193 0.0 2.0 0.00 0.32 0.00 81 1010.7
20260505124258 45 193 0.0 2.0 0.00 0.32 0.00 81 1010.7
20260505124158 45 194 0.0 2.0 0.00 0.32 0.00 81 1010.7
20260505124058 45 194 0.0 2.0 0.00 0.32 0.00 81 1010.7
20260505123959 45 140 0.0 2.0 0.00 0.32 0.00 81 1010.7
20260505123954 45 141 0.0 2.0 0.00 0.32 0.00 81 1010.7
20260505123908 45 140 0.0 2.0 0.00 0.32 0.00 81 1010.7
20260505123904 45 141 0.0 2.0 0.00 0.32 0.00 81 1010.7
20260505123656 45 140 0.0 2.0 0.00 0.32 0.00 81 1010.7
20260505123555 45 141 0.0 2.0 0.00 0.32 0.00 81 1010.7
20260505123454 45 140 0.0 2.0 0.00 0.32 0.00 81 1010.7
20260505123343 45 140 0.0 2.0 0.00 0.32 0.00 81 1010.7
20260505123250 45 141 0.0 2.0 0.00 0.32 0.00 81 1010.7
20260505123246 45 140 0.0 2.0 0.00 0.32 0.00 81 1010.7
20260505123038 45 140 0.0 2.0 0.00 0.32 0.00 81 1010.7
20260505122944 45 140 0.0 2.0 0.00 0.32 0.00 81 1010.7
20260505122927 45 141 0.0 2.0 0.00 0.32 0.00 81 1010.7
20260505122822 45 140 0.0 2.0 0.00 0.32 0.00 81 1010.7
20260505122722 45 140 0.0 2.0 0.00 0.32 0.00 81 1010.7
20260505122608 45 140 0.0 2.0 0.00 0.32 0.00 81 1010.7
20260505122512 45 140 0.0 2.0 0.00 0.32 0.00 81 1010.7
20260505122508 45 140 0.0 2.0 0.00 0.32 0.00 81 1010.7
20260505122502 45 140 0.0 2.0 0.00 0.32 0.00 81 1010.7
20260505122259 45 140 0.0 2.0 0.00 0.32 0.00 81 1010.7
20260505122255 45 140 0.0 2.0 0.00 0.32 0.00 81 1010.7
20260505122028 45 140 0.0 2.0 0.00 0.32 0.00 81 1010.7
20260505121924 45 140 1.0 2.0 0.00 0.32 0.00 81 1010.7
20260505121806 45 140 1.0 2.0 0.00 0.32 0.00 81 1010.7
20260505121642 45 140 1.0 2.0 0.00 0.32 0.00 81 1010.7
20260505121636 45 140 1.0 2.0 0.00 0.32 0.00 81 1010.7
20260505121631 45 140 1.0 2.0 0.00 0.32 0.00 81 1010.7
20260505121403 45 140 1.0 2.0 0.00 0.32 0.00 81 1010.7
20260505121309 45 140 1.0 2.0 0.00 0.32 0.00 81 1010.7
20260505121210 45 140 1.0 2.0 0.00 0.32 0.00 81 1010.7
20260505121110 45 140 1.0 2.0 0.00 0.32 0.00 81 1010.7
20260505121010 45 140 1.0 3.0 0.00 0.32 0.00 81 1010.7
20260505120909 45 140 1.0 3.0 0.00 0.32 0.00 81 1010.7
20260505120845 45 140 1.0 3.0 0.00 0.32 0.00 81 1010.7
20260505120811 45 140 1.0 3.0 0.00 0.32 0.00 81 1010.7
20260505120703 45 140 1.0 3.0 0.00 0.32 0.00 81 1010.7
20260505120558 45 140 1.0 3.0 0.00 0.32 0.00 81 1010.7
20260505120552 45 140 1.0 3.0 0.00 0.32 0.00 81 1010.7
20260505120338 45 140 1.0 3.0 0.00 0.32 0.00 81 1010.7
20260505120243 45 140 1.0 3.0 0.00 0.32 0.00 81 1010.6
20260505120143 45 140 1.0 3.0 0.00 0.32 0.00 81 1010.6
20260505120040 45 183 1.0 3.0 0.00 0.32 0.00 81 1010.6
20260505115940 45 192 0.0 3.0 0.00 0.32 0.00 81 1010.6
20260505115840 45 192 0.0 3.0 0.00 0.32 0.00 81 1010.6
20260505115734 45 192 0.0 3.0 0.00 0.32 0.00 81 1010.6
20260505115633 44 192 0.0 3.0 0.00 0.32 0.00 81 1010.6
20260505115608 44 193 0.0 3.0 0.00 0.32 0.00 81 1010.6
20260505115521 44 192 0.0 3.0 0.00 0.32 0.00 81 1010.6
20260505115442 44 192 0.0 3.0 0.00 0.32 0.00 81 1010.6
20260505115320 44 193 0.0 3.0 0.00 0.32 0.00 81 1010.6
20260505115218 44 193 0.0 3.0 0.00 0.32 0.00 81 1010.6
20260505115116 44 192 0.0 3.0 0.00 0.32 0.00 81 1010.6
20260505115026 44 192 0.0 3.0 0.00 0.32 0.00 81 1010.6
20260505115022 44 198 0.0 2.0 0.00 0.32 0.00 81 1010.5
20260505115018 44 192 0.0 3.0 0.00 0.32 0.00 81 1010.6
20260505114907 44 196 0.0 3.0 0.00 0.32 0.00 81 1010.6
20260505114647 44 198 0.0 2.0 0.00 0.32 0.00 81 1010.5
20260505114527 44 198 0.0 2.0 0.00 0.32 0.00 81 1010.5
20260505114420 44 198 0.0 2.0 0.00 0.32 0.00 81 1010.5
20260505114415 44 198 0.0 2.0 0.00 0.32 0.00 81 1010.5
20260505114203 44 198 0.0 0.0 0.00 0.32 0.00 81 1010.5
20260505114046 44 198 0.0 0.0 0.00 0.32 0.00 81 1010.5
20260505113914 44 198 0.0 0.0 0.00 0.32 0.00 81 1010.5
20260505113815 44 198 0.0 0.0 0.00 0.32 0.00 81 1010.5
20260505113703 44 198 0.0 1.0 0.00 0.32 0.00 81 1010.5
20260505113528 44 198 0.0 1.0 0.00 0.32 0.00 81 1010.5
20260505113521 44 198 0.0 2.0 0.00 0.32 0.00 81 1010.6
20260505113428 44 198 0.0 1.0 0.00 0.32 0.00 81 1010.5
20260505113356 44 198 0.0 2.0 0.00 0.32 0.00 81 1010.6
20260505113152 44 198 0.0 2.0 0.00 0.32 0.00 81 1010.6
20260505113125 44 198 0.0 2.0 0.00 0.32 0.00 81 1010.6
20260505112943 44 198 0.0 2.0 0.00 0.32 0.00 81 1010.6
20260505112854 44 198 0.0 2.0 0.00 0.32 0.00 81 1010.6
20260505112738 44 198 0.0 2.0 0.00 0.32 0.00 81 1010.6
20260505112633 44 198 0.0 2.0 0.00 0.32 0.00 81 1010.6
20260505112509 44 198 0.0 2.0 0.00 0.32 0.00 81 1010.6
20260505112400 44 198 0.0 2.0 0.00 0.32 0.00 81 1010.6
20260505112259 44 198 0.0 0.0 0.00 0.32 0.00 81 1010.6
20260505112247 44 198 0.0 1.0 0.00 0.32 0.00 81 1010.6
20260505112153 44 198 0.0 2.0 0.00 0.32 0.00 81 1010.6
20260505112024 44 198 0.0 2.0 0.00 0.32 0.00 81 1010.6
20260505111916 44 198 0.0 2.0 0.00 0.32 0.00 81 1010.6
20260505111852 44 198 0.0 2.0 0.00 0.32 0.00 81 1010.7
20260505111721 44 198 0.0 2.0 0.00 0.32 0.00 81 1010.7
20260505111638 44 198 0.0 2.0 0.00 0.32 0.00 81 1010.7
20260505111530 44 198 0.0 2.0 0.00 0.32 0.00 81 1010.7
20260505111451 44 198 0.0 2.0 0.00 0.32 0.00 81 1010.7
20260505111403 44 198 0.0 2.0 0.00 0.32 0.00 81 1010.7
20260505111326 44 198 0.0 2.0 0.00 0.32 0.00 81 1010.7
20260505111145 44 198 0.0 2.0 0.00 0.32 0.00 81 1010.7
20260505111045 44 198 0.0 1.0 0.00 0.32 0.00 81 1010.7
20260505110939 44 198 0.0 1.0 0.00 0.32 0.00 81 1010.7
20260505110834 44 198 0.0 1.0 0.00 0.32 0.00 81 1010.7
20260505110708 44 198 0.0 1.0 0.00 0.32 0.00 81 1010.7
20260505110602 44 198 0.0 1.0 0.00 0.32 0.00 81 1010.7
20260505110457 44 198 0.0 1.0 0.00 0.32 0.00 81 1010.7
20260505110334 44 198 0.0 1.0 0.00 0.32 0.00 81 1010.7
20260505110208 44 198 0.0 1.0 0.00 0.32 0.00 81 1010.7
20260505110128 44 198 0.0 1.0 0.00 0.32 0.00 81 1010.7
20260505102220 44 198 0.0 2.0 0.00 0.32 0.00 81 1010.8
20260505102146 44 198 0.0 2.0 0.00 0.32 0.00 81 1010.8
20260505102052 44 198 0.0 2.0 0.00 0.32 0.00 81 1010.8
20260505101948 44 198 0.0 2.0 0.00 0.32 0.00 81 1010.8
20260505101840 44 198 0.0 2.0 0.00 0.32 0.00 81 1010.8
20260505101739 44 198 0.0 0.0 0.00 0.32 0.00 81 1010.8
20260505101643 44 198 0.0 2.0 0.00 0.32 0.00 81 1010.8
20260505101552 44 198 0.0 2.0 0.00 0.32 0.00 81 1010.8
20260505101451 44 198 0.0 2.0 0.00 0.32 0.00 81 1010.8
20260505101404 44 198 0.0 2.0 0.00 0.32 0.00 81 1010.8
20260505101106 44 198 0.0 2.0 0.00 0.32 0.00 81 1010.8
20260505100915 44 198 1.0 2.0 0.00 0.32 0.00 81 1010.8
20260505100816 44 198 1.0 2.0 0.00 0.32 0.00 81 1010.8
20260505100700 44 198 1.0 2.0 0.00 0.32 0.00 81 1010.8
20260505100647 44 198 1.0 2.0 0.00 0.32 0.00 81 1010.8
20260505100513 44 198 1.0 2.0 0.00 0.32 0.00 81 1010.8
20260505100442 44 198 1.0 2.0 0.00 0.32 0.00 81 1010.8
20260505100340 44 198 1.0 2.0 0.00 0.32 0.00 81 1010.8
20260505100237 44 198 1.0 2.0 0.00 0.32 0.00 81 1011.1
20260505100123 44 198 1.0 2.0 0.00 0.32 0.00 81 1011.1
20260505100009 44 198 1.0 2.0 0.00 0.32 0.00 81 1011.1
20260505100004 44 198 1.0 2.0 0.00 0.32 0.00 81 1011.1
20260505095759 44 198 1.0 2.0 0.00 0.32 0.00 81 1011.1
20260505095707 44 198 1.0 3.0 0.00 0.32 0.00 81 1011.1
20260505095703 44 198 1.0 2.0 0.00 0.32 0.00 81 1011.1
20260505095542 44 198 1.0 3.0 0.00 0.32 0.00 81 1011.1
20260505095324 44 198 1.0 3.0 0.00 0.32 0.00 81 1011.1
20260505095234 44 198 1.0 3.0 0.00 0.32 0.00 81 1011.1
20260505095230 44 197 1.0 3.0 0.00 0.32 0.00 81 1011.1
20260505095227 44 198 1.0 3.0 0.00 0.32 0.00 81 1011.1
20260505094951 44 254 1.0 3.0 0.00 0.32 0.00 81 1011.1
20260505094913 44 253 1.0 3.0 0.00 0.32 0.00 81 1011.1
20260505094828 44 253 1.0 3.0 0.00 0.32 0.00 81 1011.2
20260505094824 44 253 1.0 3.0 0.00 0.32 0.00 81 1011.2
20260505094715 44 252 1.0 3.0 0.00 0.32 0.00 81 1011.2
20260505094711 44 253 1.0 3.0 0.00 0.32 0.00 81 1011.2
20260505094444 44 252 1.0 2.0 0.00 0.32 0.00 81 1011.2
20260505094356 44 252 1.0 2.0 0.00 0.32 0.00 81 1011.2
20260505094228 44 252 1.0 2.0 0.00 0.32 0.00 81 1011.2
20260505094119 44 252 1.0 3.0 0.00 0.32 0.00 81 1011.2
20260505094114 44 252 1.0 3.0 0.00 0.32 0.00 81 1011.2
20260505093941 44 252 1.0 3.0 0.00 0.32 0.00 81 1011.2
20260505093900 44 252 1.0 3.0 0.00 0.32 0.00 81 1011.2
20260505093745 44 252 1.0 3.0 0.00 0.32 0.00 81 1011.2
20260505093742 44 252 1.0 3.0 0.00 0.32 0.00 81 1011.2
20260505093532 44 252 1.0 3.0 0.00 0.32 0.00 81 1011.2
20260505093431 44 252 1.0 3.0 0.00 0.32 0.00 81 1011.2
20260505093320 44 252 1.0 3.0 0.00 0.32 0.00 81 1010.9
20260505093213 44 252 1.0 3.0 0.00 0.32 0.00 81 1010.9
20260505093110 44 253 1.0 2.0 0.00 0.32 0.00 81 1010.9
20260505093010 44 253 1.0 2.0 0.00 0.32 0.00 81 1010.9
20260505092926 44 253 2.0 2.0 0.00 0.32 0.00 81 1010.9
20260505092901 44 253 2.0 2.0 0.00 0.32 0.00 81 1010.9
20260505092758 44 253 2.0 2.0 0.00 0.32 0.00 81 1010.9
20260505092753 44 253 2.0 2.0 0.00 0.32 0.00 81 1010.9
20260505092533 44 253 2.0 2.0 0.00 0.32 0.00 81 1010.9
20260505092526 44 253 2.0 2.0 0.00 0.32 0.00 81 1010.9
20260505092406 44 253 2.0 2.0 0.00 0.32 0.00 81 1010.9
20260505092320 44 253 2.0 3.0 0.00 0.32 0.00 81 1010.9
20260505092220 44 253 2.0 3.0 0.00 0.32 0.00 81 1010.9
20260505092107 44 267 2.0 3.0 0.00 0.32 0.00 81 1010.9
20260505092000 44 267 2.0 3.0 0.00 0.32 0.00 81 1010.9
20260505091832 44 267 2.0 3.0 0.00 0.32 0.00 81 1010.9
20260505091737 44 267 2.0 3.0 0.00 0.32 0.00 81 1010.9
20260505091724 44 290 2.0 3.0 0.00 0.32 0.00 81 1010.9
20260505091521 44 293 2.0 5.0 0.00 0.32 0.00 81 1010.9
20260505091420 44 292 2.0 5.0 0.00 0.32 0.00 81 1010.9
20260505091315 44 292 2.0 5.0 0.00 0.32 0.00 81 1010.9
20260505091256 44 255 2.0 5.0 0.00 0.32 0.00 81 1010.9
20260505091213 44 254 2.0 5.0 0.00 0.32 0.00 81 1010.9
20260505091112 43 229 2.0 5.0 0.00 0.32 0.00 81 1010.9
20260505091013 43 288 2.0 5.0 0.00 0.32 0.00 81 1010.9
20260505090912 43 287 2.0 5.0 0.00 0.32 0.00 81 1010.9
20260505090813 43 288 2.0 5.0 0.00 0.32 0.00 81 1010.9
20260505090757 43 287 2.0 5.0 0.00 0.32 0.00 81 1010.9
20260505090710 43 289 2.0 5.0 0.00 0.32 0.00 81 1010.9
20260505090610 43 285 2.0 5.0 0.00 0.32 0.00 81 1010.9
20260505090507 43 251 2.0 3.0 0.00 0.32 0.00 81 1010.9
20260505090405 43 249 2.0 3.0 0.00 0.32 0.00 81 1010.9
20260505090302 43 249 2.0 3.0 0.00 0.32 0.00 82 1011.2
20260505090256 43 249 2.0 3.0 0.00 0.32 0.00 81 1011.2
20260505090213 43 249 2.0 4.0 0.00 0.32 0.00 82 1011.2
20260505090208 43 249 2.0 3.0 0.00 0.32 0.00 82 1011.2
20260505085958 43 249 3.0 4.0 0.00 0.32 0.00 82 1011.2
20260505085857 43 243 3.0 4.0 0.00 0.32 0.00 82 1011.2
20260505085757 43 244 3.0 4.0 0.00 0.32 0.00 82 1011.2
20260505085748 43 243 3.0 4.0 0.00 0.32 0.00 82 1011.2
20260505085744 43 243 3.0 4.0 0.00 0.32 0.00 82 1011.2
20260505085510 43 243 3.0 8.0 0.00 0.32 0.00 82 1011.2
20260505085417 43 243 3.0 5.0 0.00 0.32 0.00 82 1011.2
20260505085344 43 243 3.0 5.0 0.00 0.32 0.00 82 1011.2
20260505085217 43 243 3.0 8.0 0.00 0.32 0.00 82 1011.2
20260505085117 43 243 3.0 8.0 0.00 0.32 0.00 82 1011.2
20260505085018 43 248 3.0 8.0 0.00 0.32 0.00 82 1011.2
20260505085012 43 248 3.0 8.0 0.00 0.32 0.00 82 1011.2
20260505084817 43 249 3.0 11.0 0.00 0.32 0.00 82 1011.3
20260505084812 43 248 3.0 11.0 0.00 0.32 0.00 82 1011.3
20260505084607 43 284 3.0 11.0 0.00 0.32 0.00 82 1011.3
20260505084524 43 291 3.0 11.0 0.00 0.32 0.00 82 1011.3
20260505084520 43 302 3.0 11.0 0.00 0.32 0.00 82 1011.3
20260505084516 43 249 3.0 11.0 0.00 0.32 0.00 82 1011.3
20260505084233 43 276 3.0 11.0 0.00 0.32 0.00 82 1011.3
20260505084203 43 251 3.0 11.0 0.00 0.32 0.00 82 1011.3
20260505084102 43 216 3.0 11.0 0.00 0.32 0.00 82 1011.3
20260505084010 43 248 2.0 11.0 0.00 0.32 0.00 82 1011.3
20260505084006 43 297 2.0 11.0 0.00 0.32 0.00 82 1011.3
20260505083757 43 281 2.0 10.0 0.00 0.32 0.00 82 1011.3
20260505083734 43 321 2.0 10.0 0.00 0.32 0.00 82 1011.3
20260505083658 43 301 2.0 10.0 0.00 0.32 0.00 82 1011.3
20260505083607 43 292 2.0 10.0 0.00 0.32 0.00 82 1011.3
20260505083603 43 271 2.0 10.0 0.00 0.32 0.00 82 1011.6
20260505083559 43 292 2.0 10.0 0.00 0.32 0.00 82 1011.3
20260505083449 43 295 2.0 10.0 0.00 0.32 0.00 82 1011.6
20260505083445 43 292 2.0 10.0 0.00 0.32 0.00 82 1011.3
20260505083152 43 311 2.0 7.0 0.00 0.32 0.00 82 1011.6
20260505083148 43 295 2.0 7.0 0.00 0.32 0.00 82 1011.6
20260505082942 43 148 1.0 4.0 0.00 0.32 0.00 81 1011.6
20260505082843 43 1 1.0 4.0 0.00 0.32 0.00 81 1011.6
20260505082734 43 223 1.0 4.0 0.00 0.32 0.00 81 1011.6
20260505082638 43 223 1.0 4.0 0.00 0.32 0.00 81 1011.6
20260505082537 43 224 1.0 4.0 0.00 0.32 0.00 81 1011.6
20260505082437 43 223 1.0 4.0 0.00 0.32 0.00 81 1011.6
20260505082335 43 223 1.0 4.0 0.00 0.32 0.00 81 1011.6
20260505082321 44 299 2.0 2.0 0.00 0.32 0.00 81 1011.5
20260505082235 43 291 1.0 4.0 0.00 0.32 0.00 81 1011.6
20260505082155 43 291 1.0 4.0 0.00 0.32 0.00 81 1011.6
20260505082028 43 291 1.0 3.0 0.00 0.32 0.00 81 1011.6
20260505081934 44 299 2.0 2.0 0.00 0.32 0.00 81 1011.5
20260505081930 43 299 2.0 2.0 0.00 0.32 0.00 81 1011.6
20260505081925 44 299 2.0 2.0 0.00 0.32 0.00 81 1011.5
20260505081613 44 299 2.0 2.0 0.00 0.32 0.00 82 1011.5
20260505081513 44 299 2.0 2.0 0.00 0.32 0.00 82 1011.5
20260505081457 44 299 2.0 3.0 0.00 0.32 0.00 82 1011.5
20260505081412 44 299 2.0 2.0 0.00 0.32 0.00 82 1011.5
20260505081332 44 299 2.0 2.0 0.00 0.32 0.00 82 1011.5
20260505081200 44 299 2.0 5.0 0.00 0.32 0.00 82 1011.5
20260505081126 44 299 2.0 5.0 0.00 0.32 0.00 82 1011.5
20260505081122 44 299 2.0 5.0 0.00 0.32 0.00 82 1011.5
20260505080810 44 301 2.0 6.0 0.00 0.32 0.00 82 1011.5
20260505080708 44 301 2.0 6.0 0.00 0.32 0.00 82 1011.5
20260505080607 44 301 2.0 6.0 0.00 0.32 0.00 82 1011.5
20260505080505 44 301 2.0 6.0 0.00 0.32 0.00 82 1011.5
20260505080426 44 244 2.0 6.0 0.00 0.32 0.00 82 1011.4
20260505080421 44 249 2.0 6.0 0.00 0.32 0.00 82 1011.4
20260505080417 44 301 2.0 6.0 0.00 0.32 0.00 82 1011.5
20260505080302 44 301 2.0 6.0 0.00 0.32 0.00 82 1011.4
20260505075952 44 286 2.0 6.0 0.00 0.32 0.00 82 1011.4
20260505075909 44 309 2.0 4.0 0.00 0.32 0.00 81 1011.4
20260505075904 44 317 2.0 6.0 0.00 0.32 0.00 82 1011.4
20260505075755 44 279 2.0 5.0 0.00 0.32 0.00 82 1011.4
20260505075749 44 278 2.0 5.0 0.00 0.32 0.00 82 1011.4
20260505075545 44 322 2.0 4.0 0.00 0.32 0.00 81 1011.4
20260505075442 44 290 2.0 4.0 0.00 0.32 0.00 81 1011.4
20260505075340 44 300 2.0 3.0 0.00 0.32 0.00 81 1011.4
20260505075237 44 300 2.0 3.0 0.00 0.32 0.00 81 1011.4
20260505075212 44 321 2.0 3.0 0.00 0.32 0.00 81 1011.4
20260505075137 44 321 2.0 3.0 0.00 0.32 0.00 81 1011.4
20260505075038 44 321 2.0 3.0 0.00 0.32 0.00 81 1011.4
20260505074937 44 321 2.0 3.0 0.00 0.32 0.00 81 1011.4
20260505074835 44 321 2.0 3.0 0.00 0.32 0.00 81 1011.4
20260505074704 44 321 2.0 4.0 0.00 0.32 0.00 81 1011.8
20260505074620 44 279 2.0 4.0 0.00 0.32 0.00 81 1011.8
20260505074520 44 279 2.0 4.0 0.00 0.32 0.00 81 1011.8
20260505074410 44 279 2.0 4.0 0.00 0.32 0.00 81 1011.8
20260505074309 44 279 2.0 4.0 0.00 0.32 0.00 81 1011.8
20260505074205 44 278 2.0 4.0 0.00 0.32 0.00 81 1011.8
20260505074102 44 320 2.0 4.0 0.00 0.32 0.00 81 1011.8
20260505074002 44 287 2.0 4.0 0.00 0.32 0.00 81 1011.8
20260505073845 44 287 2.0 4.0 0.00 0.32 0.00 81 1011.8
20260505073735 44 285 2.0 4.0 0.00 0.32 0.00 81 1011.8
20260505073704 44 285 2.0 4.0 0.00 0.32 0.00 81 1011.8
20260505073645 44 285 2.0 4.0 0.00 0.32 0.00 81 1011.8
20260505073641 44 285 2.0 4.0 0.00 0.32 0.00 81 1011.8
20260505073428 44 285 2.0 4.0 0.00 0.32 0.00 81 1011.8
20260505073337 44 283 2.0 4.0 0.00 0.32 0.00 81 1012.0
20260505073333 44 284 2.0 4.0 0.00 0.32 0.00 81 1012.0
20260505073201 44 283 2.0 4.0 0.00 0.32 0.00 81 1012.0
20260505073127 44 333 2.0 4.0 0.00 0.32 0.00 81 1012.0
20260505073007 44 332 1.0 4.0 0.00 0.32 0.00 81 1012.0
20260505072902 44 340 1.0 4.0 0.00 0.32 0.00 81 1012.0
20260505072803 44 340 1.0 4.0 0.00 0.32 0.00 81 1012.0
20260505072703 44 341 1.0 4.0 0.00 0.32 0.00 81 1012.0
20260505072557 44 267 1.0 3.0 0.00 0.32 0.00 81 1012.0
20260505072500 44 267 1.0 3.0 0.00 0.32 0.00 81 1012.0
20260505072456 44 267 1.0 3.0 0.00 0.32 0.00 81 1012.0
20260505072239 44 267 1.0 3.0 0.00 0.32 0.00 81 1012.0
20260505072133 44 267 1.0 3.0 0.00 0.32 0.00 81 1012.0
20260505072027 44 267 1.0 3.0 0.00 0.32 0.00 81 1012.0
20260505071927 44 267 2.0 2.0 0.00 0.32 0.00 81 1011.6
20260505071923 44 267 2.0 3.0 0.00 0.32 0.00 81 1012.0
20260505071705 44 267 2.0 2.0 0.00 0.32 0.00 81 1011.6
20260505071653 44 267 2.0 2.0 0.00 0.32 0.00 81 1011.6
20260505071605 44 267 2.0 2.0 0.00 0.32 0.00 81 1011.6
20260505071511 44 267 2.0 3.0 0.00 0.32 0.00 81 1011.6
20260505071507 44 267 2.0 2.0 0.00 0.32 0.00 81 1011.6
20260505071358 44 267 2.0 3.0 0.00 0.32 0.00 81 1011.6
20260505071152 44 267 2.0 3.0 0.00 0.32 0.00 81 1011.6
20260505071039 44 267 2.0 3.0 0.00 0.32 0.00 81 1011.6
20260505070913 44 267 2.0 3.0 0.00 0.32 0.00 81 1011.6
20260505070809 44 267 2.0 3.0 0.00 0.32 0.00 81 1011.6
20260505070804 44 267 2.0 3.0 0.00 0.32 0.00 81 1011.6
20260505070655 44 267 2.0 3.0 0.00 0.32 0.00 81 1011.6
20260505070553 44 267 2.0 3.0 0.00 0.32 0.00 81 1011.6
20260505070450 44 267 2.0 3.0 0.00 0.32 0.00 81 1011.6
20260505070345 44 267 2.0 3.0 0.00 0.32 0.00 81 1011.6
20260505070237 44 267 2.0 3.0 0.00 0.32 0.00 81 1011.5
20260505070132 44 267 2.0 3.0 0.00 0.32 0.00 81 1011.5
20260505070017 44 267 2.0 3.0 0.00 0.32 0.00 81 1011.5
20260505065918 44 267 1.0 3.0 0.00 0.32 0.32 81 1011.5
20260505065815 44 267 1.0 3.0 0.00 0.32 0.32 81 1011.5
20260505065710 44 267 1.0 3.0 0.00 0.32 0.32 81 1011.5
20260505065648 44 267 1.0 3.0 0.00 0.32 0.32 81 1011.5
20260505065610 44 267 1.0 3.0 0.00 0.32 0.32 81 1011.5
20260505065510 44 267 1.0 3.0 0.00 0.32 0.32 81 1011.5
20260505065417 44 267 1.0 3.0 0.00 0.32 0.32 81 1011.5
20260505065413 44 267 1.0 3.0 0.00 0.32 0.32 81 1011.5
20260505065409 44 267 1.0 3.0 0.00 0.32 0.32 81 1011.5
20260505065251 44 267 1.0 3.0 0.00 0.32 0.32 81 1011.5
20260505065053 44 267 1.0 3.0 0.00 0.32 0.32 81 1011.5
20260505064950 44 127 2.0 3.0 0.00 0.32 0.32 81 1011.5
20260505064850 44 127 2.0 3.0 0.00 0.32 0.32 81 1011.5
20260505064750 44 127 2.0 3.0 0.00 0.32 0.32 81 1010.9
20260505064632 44 126 2.0 3.0 0.00 0.32 0.32 81 1010.9
20260505064549 44 125 2.0 3.0 0.00 0.32 0.32 81 1010.9
20260505064447 44 162 2.0 4.0 0.00 0.32 0.32 81 1010.9
20260505064424 44 162 2.0 4.0 0.00 0.32 0.32 81 1010.9
20260505064347 44 162 2.0 4.0 0.00 0.32 0.32 81 1010.9
20260505064311 44 162 2.0 4.0 0.00 0.32 0.32 81 1010.9
20260505064307 44 162 1.0 4.0 0.00 0.32 0.32 81 1010.9
20260505064303 44 162 2.0 4.0 0.00 0.32 0.32 81 1010.9
20260505064257 44 162 2.0 4.0 0.00 0.32 0.32 81 1010.9
20260505063840 44 163 1.0 4.0 0.00 0.32 0.32 81 1010.9
20260505063737 44 163 1.0 4.0 0.00 0.32 0.32 81 1010.9
20260505063651 44 166 1.0 4.0 0.00 0.32 0.32 81 1010.9
20260505063642 44 166 1.0 4.0 0.00 0.32 0.32 81 1010.9
20260505063432 44 170 1.0 4.0 0.00 0.32 0.32 81 1010.9
20260505063332 44 43 1.0 3.0 0.00 0.32 0.32 81 1010.9
20260505063248 44 43 1.0 2.0 0.00 0.32 0.32 81 1010.8
20260505063244 44 43 1.0 3.0 0.00 0.32 0.32 81 1010.8
20260505063131 44 43 1.0 3.0 0.00 0.32 0.32 81 1010.8
20260505062915 44 43 1.0 2.0 0.00 0.32 0.32 81 1010.8
20260505062803 44 43 1.0 2.0 0.00 0.32 0.32 81 1010.8
20260505062631 44 43 1.0 2.0 0.00 0.32 0.32 81 1010.8
20260505062557 44 43 1.0 2.0 0.00 0.32 0.32 81 1010.8
20260505062455 44 43 1.0 2.0 0.00 0.32 0.32 81 1010.8
20260505062354 45 43 1.0 2.0 0.00 0.32 0.32 81 1010.8
20260505062227 45 43 1.0 2.0 0.00 0.32 0.32 81 1010.8
20260505062128 45 43 1.0 3.0 0.00 0.32 0.32 81 1010.8
20260505062123 44 43 1.0 3.0 0.00 0.32 0.32 81 1010.8
20260505062027 45 43 1.0 3.0 0.00 0.32 0.32 81 1010.8
20260505061911 45 43 2.0 3.0 0.00 0.32 0.32 81 1010.8
20260505061804 45 43 2.0 4.0 0.00 0.32 0.32 81 1010.7
20260505061658 44 43 2.0 4.0 0.00 0.32 0.32 81 1010.7
20260505061647 45 43 2.0 4.0 0.00 0.32 0.32 81 1010.7
20260505061643 45 43 2.0 4.0 0.00 0.32 0.32 81 1010.7
20260505061639 45 43 2.0 4.0 0.00 0.32 0.32 81 1010.7
20260505061412 44 43 2.0 4.0 0.00 0.32 0.32 81 1010.7
20260505061218 45 43 2.0 4.0 0.00 0.32 0.32 81 1010.7
20260505061214 45 43 2.0 4.0 0.00 0.32 0.32 81 1010.7
20260505061205 45 43 2.0 4.0 0.00 0.32 0.32 81 1010.7
20260505060852 45 43 2.0 4.0 0.00 0.32 0.32 81 1010.7
20260505060745 45 19 2.0 4.0 0.00 0.32 0.32 81 1010.7
20260505060653 45 320 2.0 4.0 0.00 0.32 0.32 81 1010.7
20260505060649 45 353 2.0 4.0 0.00 0.32 0.32 81 1010.7
20260505060644 45 320 2.0 3.0 0.00 0.32 0.32 81 1010.7
20260505060432 45 320 2.0 4.0 0.00 0.32 0.32 81 1010.7
20260505060330 45 320 2.0 4.0 0.00 0.32 0.32 81 1010.8
20260505060229 45 320 2.0 4.0 0.00 0.32 0.32 81 1010.8
20260505060106 45 320 2.0 4.0 0.00 0.32 0.32 81 1010.8
20260505060024 45 320 2.0 4.0 0.00 0.32 0.32 81 1010.8
20260505055924 45 320 2.0 4.0 0.00 0.32 0.32 81 1010.8
20260505055747 45 320 2.0 4.0 0.00 0.32 0.32 81 1010.8
20260505055701 45 311 2.0 5.0 0.00 0.32 0.32 81 1010.8
20260505055657 45 320 2.0 4.0 0.00 0.32 0.32 81 1010.8
20260505055652 45 320 2.0 4.0 0.00 0.32 0.32 81 1010.8
20260505055337 45 243 2.0 5.0 0.00 0.32 0.32 81 1010.8
20260505055236 45 242 2.0 5.0 0.00 0.32 0.32 81 1010.8
20260505055135 45 242 2.0 5.0 0.00 0.32 0.32 81 1010.8
20260505055059 45 242 2.0 5.0 0.00 0.32 0.32 81 1010.8
20260505055026 45 242 2.0 5.0 0.00 0.32 0.32 81 1010.8
20260505054922 45 242 2.0 5.0 0.00 0.32 0.32 81 1010.8
20260505054823 45 274 2.0 5.0 0.00 0.32 0.32 82 1011.2
20260505054722 45 139 2.0 5.0 0.00 0.32 0.32 81 1011.2
20260505054620 45 140 2.0 5.0 0.00 0.32 0.32 81 1011.2
20260505054556 45 140 2.0 5.0 0.00 0.32 0.32 82 1011.2
20260505054520 45 284 2.0 5.0 0.00 0.32 0.32 81 1011.2
20260505054412 45 317 2.0 5.0 0.00 0.32 0.32 81 1011.2
20260505054345 44 296 2.0 4.0 0.00 0.32 0.32 81 1011.2
20260505054312 45 216 2.0 4.0 0.00 0.32 0.32 81 1011.2
20260505054229 44 14 2.0 3.0 0.00 0.32 0.32 81 1011.2
20260505054225 45 237 2.0 4.0 0.00 0.32 0.32 81 1011.2
20260505054220 45 300 2.0 4.0 0.00 0.32 0.32 81 1011.2
20260505053910 44 14 2.0 3.0 0.00 0.32 0.32 81 1011.2
20260505053807 44 14 2.0 4.0 0.00 0.32 0.32 81 1011.2
20260505053658 44 14 2.0 4.0 0.00 0.32 0.32 81 1011.2
20260505053557 44 302 2.0 4.0 0.00 0.32 0.32 81 1011.2
20260505053546 44 302 2.0 4.0 0.00 0.32 0.32 81 1011.2
20260505053542 44 302 2.0 4.0 0.00 0.32 0.32 81 1011.2
20260505053229 44 302 2.0 4.0 0.00 0.32 0.32 81 1011.4
20260505053133 44 302 2.0 4.0 0.00 0.32 0.32 81 1011.4
20260505053124 44 302 2.0 4.0 0.00 0.32 0.32 81 1011.4
20260505052912 44 301 2.0 4.0 0.00 0.32 0.32 81 1011.4
20260505052809 44 302 2.0 4.0 0.00 0.32 0.32 81 1011.4
20260505052707 44 304 2.0 4.0 0.00 0.32 0.32 81 1011.4
20260505052607 44 216 2.0 4.0 0.00 0.32 0.32 81 1011.4
20260505052551 44 216 2.0 4.0 0.00 0.32 0.32 81 1011.4
20260505052505 44 214 2.0 4.0 0.00 0.32 0.32 81 1011.4
20260505052405 44 245 2.0 4.0 0.00 0.32 0.32 81 1011.4
20260505052323 44 245 2.0 4.0 0.00 0.32 0.32 81 1011.4
20260505052319 44 245 2.0 4.0 0.00 0.32 0.32 81 1011.4
20260505052315 44 245 2.0 4.0 0.00 0.32 0.32 81 1011.4
20260505052051 44 244 2.0 4.0 0.00 0.32 0.32 81 1011.4
20260505052005 44 244 3.0 4.0 0.00 0.32 0.32 81 1011.4
20260505051905 44 247 3.0 5.0 0.00 0.32 0.32 81 1011.4
20260505051805 44 210 3.0 5.0 0.00 0.32 0.32 81 1011.2
20260505051705 44 210 3.0 5.0 0.00 0.32 0.32 81 1011.2
20260505051548 44 209 3.0 7.0 0.00 0.32 0.32 81 1011.2
20260505051452 44 211 3.0 7.0 0.00 0.32 0.32 81 1011.2
20260505051340 44 153 3.0 7.0 0.00 0.32 0.32 81 1011.2
20260505051237 44 245 3.0 7.0 0.00 0.32 0.32 81 1011.2
20260505051138 44 245 3.0 9.0 0.00 0.32 0.32 81 1011.2
20260505051046 44 245 3.0 9.0 0.00 0.32 0.32 81 1011.2
20260505051032 44 246 3.0 9.0 0.00 0.32 0.32 81 1011.2
20260505050930 44 239 2.0 9.0 0.00 0.32 0.32 81 1011.2
20260505050827 44 173 2.0 9.0 0.00 0.32 0.32 81 1011.2
20260505050728 44 205 2.0 9.0 0.00 0.32 0.32 81 1011.2
20260505050636 44 274 2.0 9.0 0.00 0.32 0.32 81 1011.2
20260505050632 44 272 2.0 9.0 0.00 0.32 0.32 81 1011.2
20260505050627 44 302 2.0 9.0 0.00 0.32 0.32 81 1011.2
20260505050422 44 287 2.0 9.0 0.00 0.32 0.32 81 1011.2
20260505050323 44 224 2.0 9.0 0.00 0.32 0.32 81 1011.1
20260505050222 44 300 2.0 9.0 0.00 0.32 0.32 81 1011.1
20260505050122 44 290 2.0 6.0 0.00 0.32 0.32 81 1011.1
20260505041757 44 229 4.0 8.0 0.03 0.32 0.32 81 1010.9
20260505041752 44 284 4.0 10.0 0.01 0.32 0.32 81 1010.9
20260505041629 44 295 4.0 9.0 0.03 0.32 0.32 81 1010.9
20260505041447 43 303 4.0 8.0 0.03 0.32 0.32 81 1010.9
20260505041348 43 300 4.0 8.0 0.03 0.32 0.32 81 1010.9
20260505041247 43 254 4.0 8.0 0.03 0.32 0.32 81 1010.9
20260505041145 43 282 4.0 8.0 0.03 0.32 0.32 81 1010.9
20260505041032 43 292 4.0 9.0 0.03 0.32 0.32 81 1010.9
20260505041024 43 298 4.0 9.0 0.03 0.32 0.32 81 1010.9
20260505040942 43 267 4.0 9.0 0.03 0.32 0.32 81 1010.9
20260505040938 43 271 4.0 9.0 0.03 0.32 0.32 81 1010.9
20260505040755 43 288 4.0 9.0 0.04 0.32 0.32 81 1010.9
20260505040743 43 250 4.0 9.0 0.04 0.32 0.32 81 1010.9
20260505040739 43 274 4.0 9.0 0.03 0.32 0.32 81 1010.9
20260505040628 43 266 4.0 9.0 0.04 0.32 0.32 81 1010.9
20260505040432 43 250 4.0 9.0 0.04 0.32 0.32 81 1010.9
20260505040332 43 265 4.0 9.0 0.04 0.32 0.32 81 1010.9
20260505040254 44 271 4.0 8.0 0.04 0.32 0.32 81 1011.1
20260505040250 44 301 4.0 8.0 0.05 0.32 0.32 81 1011.1
20260505040246 43 241 4.0 9.0 0.04 0.32 0.32 81 1011.1
20260505040240 43 311 4.0 9.0 0.04 0.32 0.32 81 1011.1
20260505035825 44 292 4.0 7.0 0.05 0.32 0.32 81 1011.1
20260505035724 44 295 4.0 7.0 0.05 0.32 0.32 81 1011.1
20260505035625 44 312 4.0 6.0 0.05 0.32 0.32 81 1011.1
20260505035524 44 304 4.0 14.0 0.05 0.32 0.32 81 1011.1
20260505035514 44 263 4.0 14.0 0.06 0.32 0.32 81 1011.1
20260505035310 44 277 4.0 14.0 0.07 0.32 0.32 81 1011.1
20260505035220 44 286 4.0 14.0 0.07 0.32 0.32 81 1011.1
20260505035215 44 269 4.0 14.0 0.07 0.32 0.32 81 1011.1
20260505035022 44 305 4.0 14.0 0.07 0.32 0.32 81 1011.1
20260505035009 44 301 4.0 14.0 0.07 0.32 0.32 81 1011.1
20260505034910 44 259 4.0 14.0 0.07 0.32 0.32 81 1011.1
20260505034823 44 301 4.0 14.0 0.07 0.32 0.32 81 1010.5
20260505034819 45 292 4.0 8.0 0.07 0.32 0.32 81 1010.5
20260505034815 44 255 4.0 14.0 0.07 0.32 0.32 81 1010.5
20260505034626 45 275 4.0 14.0 0.07 0.32 0.32 81 1010.5
20260505034510 45 291 4.0 8.0 0.07 0.32 0.32 81 1010.5
20260505034409 45 305 4.0 9.0 0.07 0.32 0.32 81 1010.5
20260505034310 45 257 4.0 9.0 0.07 0.32 0.32 81 1010.5
20260505034209 45 289 4.0 9.0 0.07 0.32 0.32 81 1010.5
20260505034110 45 313 4.0 9.0 0.07 0.32 0.32 81 1010.5
20260505034009 45 256 4.0 9.0 0.07 0.32 0.32 81 1010.5
20260505033917 45 283 2.0 9.0 0.07 0.32 0.32 81 1010.5
20260505033913 45 313 2.0 9.0 0.07 0.32 0.32 81 1010.5
20260505033707 46 249 2.0 9.0 0.07 0.32 0.32 81 1010.5
20260505033607 46 286 2.0 9.0 0.07 0.32 0.32 81 1010.5
20260505033520 46 32 2.0 9.0 0.07 0.32 0.32 81 1010.5
20260505033505 46 307 2.0 9.0 0.07 0.32 0.32 81 1010.5
20260505033402 46 272 2.0 8.0 0.07 0.32 0.32 81 1010.5
20260505033302 46 273 2.0 8.0 0.07 0.32 0.32 81 1010.4
20260505033211 46 42 2.0 4.0 0.07 0.32 0.32 81 1010.4
20260505033207 46 330 2.0 8.0 0.07 0.32 0.32 81 1010.4
20260505033002 46 280 2.0 3.0 0.07 0.32 0.32 81 1010.4
20260505032857 46 280 2.0 4.0 0.07 0.32 0.32 81 1010.4
20260505032757 46 279 2.0 4.0 0.07 0.32 0.32 81 1010.4
20260505032657 46 279 2.0 4.0 0.07 0.32 0.32 81 1010.4
20260505032554 46 279 2.0 4.0 0.07 0.32 0.32 81 1010.4
20260505032518 46 279 2.0 4.0 0.07 0.32 0.32 81 1010.4
20260505032446 46 279 2.0 4.0 0.07 0.32 0.32 81 1010.4
20260505032314 46 279 2.0 4.0 0.07 0.32 0.32 81 1010.4
20260505032212 46 279 2.0 4.0 0.07 0.32 0.32 80 1010.4
20260505032110 46 279 2.0 4.0 0.06 0.31 0.32 81 1010.4
20260505032009 46 279 2.0 4.0 0.06 0.31 0.31 81 1010.4
20260505031956 46 279 2.0 4.0 0.06 0.31 0.31 81 1010.4
20260505031859 46 270 2.0 4.0 0.06 0.31 0.31 81 1010.4
20260505031854 46 271 2.0 4.0 0.06 0.31 0.31 81 1010.7
20260505031648 46 271 2.0 4.0 0.05 0.30 0.31 81 1010.7
20260505031547 46 322 2.0 4.0 0.04 0.29 0.30 81 1010.7
20260505031509 46 322 2.0 4.0 0.04 0.29 0.30 81 1010.7
20260505031428 45 322 2.0 4.0 0.04 0.29 0.29 80 1010.7
20260505031322 45 322 2.0 4.0 0.04 0.29 0.29 81 1010.7
20260505031220 45 322 2.0 4.0 0.04 0.29 0.29 80 1010.7
20260505031119 45 322 2.0 3.0 0.04 0.29 0.29 80 1010.7
20260505031009 45 322 2.0 4.0 0.04 0.29 0.29 80 1010.7
20260505030914 45 287 2.0 4.0 0.04 0.29 0.29 81 1010.7
20260505030805 45 286 2.0 4.0 0.04 0.29 0.29 81 1010.7
20260505030705 45 286 2.0 4.0 0.04 0.29 0.29 81 1010.7
20260505030600 45 286 2.0 4.0 0.03 0.28 0.28 81 1010.7
20260505030508 45 286 2.0 4.0 0.03 0.28 0.28 81 1010.7
20260505030459 45 286 2.0 4.0 0.03 0.28 0.28 81 1010.7
20260505030352 45 286 2.0 4.0 0.03 0.28 0.28 81 1010.7
20260505030252 45 286 2.0 4.0 0.03 0.28 0.28 81 1011.2
20260505030239 45 271 2.0 6.0 0.03 0.28 0.28 81 1011.2
20260505030152 45 287 2.0 4.0 0.03 0.28 0.28 81 1011.2
20260505030114 45 286 2.0 5.0 0.03 0.28 0.28 81 1011.2
20260505025957 45 270 3.0 6.0 0.03 0.27 0.27 81 1011.2
20260505025953 45 272 3.0 6.0 0.03 0.27 0.28 81 1011.2
20260505025740 45 80 3.0 6.0 0.03 0.27 0.27 81 1011.2
20260505025635 45 225 3.0 6.0 0.03 0.27 0.27 81 1011.2
20260505025534 45 226 3.0 6.0 0.03 0.27 0.27 81 1011.2
20260505025506 45 225 3.0 6.0 0.02 0.26 0.26 81 1011.2
20260505025434 45 226 3.0 6.0 0.02 0.26 0.26 81 1011.2
20260505025335 45 247 3.0 6.0 0.01 0.25 0.26 81 1011.2
20260505025234 45 196 3.0 6.0 0.01 0.25 0.25 81 1011.2
20260505025135 45 264 3.0 6.0 0.01 0.25 0.25 80 1011.2
20260505025034 45 276 3.0 7.0 0.01 0.25 0.25 81 1011.2
20260505024956 45 206 5.0 7.0 0.01 0.25 0.25 81 1011.2
20260505024935 45 216 5.0 7.0 0.01 0.25 0.25 80 1011.2
20260505024834 45 329 5.0 7.0 0.01 0.25 0.25 81 1011.2
20260505024809 45 281 5.0 10.0 0.01 0.25 0.25 81 1010.5
20260505024805 45 318 5.0 11.0 0.01 0.25 0.25 81 1010.5
20260505024801 45 244 5.0 7.0 0.01 0.25 0.25 81 1010.5
20260505024651 45 254 5.0 10.0 0.01 0.25 0.25 81 1010.5
20260505024647 45 247 5.0 10.0 0.01 0.25 0.25 81 1010.5
20260505024536 45 280 5.0 10.0 0.01 0.25 0.25 81 1010.5
20260505024337 45 319 5.0 10.0 0.01 0.25 0.25 81 1010.5
20260505024332 45 294 5.0 10.0 0.01 0.25 0.25 81 1010.5
20260505024132 45 323 5.0 11.0 0.01 0.25 0.25 81 1010.5
20260505024101 45 264 5.0 11.0 0.01 0.25 0.25 81 1010.5
20260505023939 45 267 5.0 11.0 0.01 0.25 0.25 81 1010.5
20260505023935 45 260 5.0 11.0 0.01 0.25 0.25 81 1010.5
20260505023736 45 284 5.0 11.0 0.01 0.25 0.25 81 1010.5
20260505023732 45 248 5.0 11.0 0.01 0.25 0.25 81 1010.5
20260505023544 45 312 5.0 11.0 0.04 0.25 0.25 81 1010.0
20260505023540 45 300 5.0 11.0 0.02 0.25 0.25 81 1010.5
20260505023536 45 235 5.0 11.0 0.02 0.25 0.25 81 1010.5
20260505023531 45 316 5.0 11.0 0.02 0.25 0.25 81 1010.5
20260505023336 45 267 5.0 11.0 0.02 0.25 0.25 81 1010.0
20260505023227 45 308 5.0 11.0 0.02 0.25 0.25 81 1010.0
20260505023127 45 317 5.0 11.0 0.03 0.25 0.25 81 1010.0
20260505023102 45 300 5.0 11.0 0.04 0.25 0.25 81 1010.0
20260505022927 45 286 5.0 11.0 0.05 0.25 0.25 81 1010.0
20260505022828 45 311 5.0 10.0 0.05 0.25 0.25 81 1010.0
20260505022727 45 260 5.0 10.0 0.05 0.25 0.25 81 1010.0
20260505022651 45 265 5.0 10.0 0.05 0.25 0.25 81 1010.0
20260505022647 45 283 5.0 10.0 0.05 0.25 0.25 81 1010.0
20260505022642 45 329 5.0 10.0 0.05 0.25 0.25 81 1010.0
20260505022531 45 315 5.0 10.0 0.05 0.25 0.25 81 1010.0
20260505022337 45 247 5.0 9.0 0.07 0.25 0.25 81 1010.0
20260505022333 45 269 5.0 9.0 0.06 0.25 0.25 81 1010.0
20260505022125 45 284 5.0 9.0 0.07 0.25 0.25 80 1010.0
20260505022024 46 257 5.0 9.0 0.07 0.25 0.25 81 1010.0
20260505021956 46 324 4.0 9.0 0.07 0.25 0.25 81 1010.0
20260505021925 46 230 4.0 9.0 0.07 0.25 0.25 81 1010.0
20260505021834 46 296 4.0 9.0 0.08 0.25 0.25 81 1009.8
20260505021830 46 338 4.0 9.0 0.08 0.25 0.25 81 1009.8
20260505021625 46 282 4.0 9.0 0.08 0.25 0.25 81 1009.8
20260505021525 46 293 4.0 9.0 0.09 0.25 0.25 81 1009.8
20260505021456 46 273 4.0 9.0 0.09 0.25 0.25 81 1009.8
20260505021424 47 307 4.0 9.0 0.09 0.25 0.25 81 1009.8
20260505021335 47 25 4.0 8.0 0.09 0.25 0.25 81 1009.8
20260505021330 47 262 4.0 9.0 0.09 0.25 0.25 81 1009.8
20260505021125 47 342 4.0 13.0 0.10 0.25 0.25 81 1009.8
20260505021025 47 351 4.0 13.0 0.10 0.25 0.25 81 1009.8
20260505020956 47 323 5.0 13.0 0.10 0.25 0.25 81 1009.8
20260505020924 47 315 5.0 13.0 0.10 0.25 0.25 81 1009.8
20260505020825 47 250 5.0 13.0 0.10 0.25 0.25 80 1009.8
20260505020724 47 313 5.0 13.0 0.10 0.25 0.25 80 1009.8
20260505020625 47 245 5.0 13.0 0.11 0.25 0.25 80 1009.8
20260505020524 47 225 5.0 13.0 0.11 0.25 0.25 80 1009.8
20260505020456 47 280 5.0 13.0 0.11 0.25 0.25 80 1009.8
20260505020424 47 289 5.0 13.0 0.11 0.25 0.25 80 1009.8
20260505020324 47 289 5.0 13.0 0.11 0.25 0.25 80 1009.9
20260505020220 47 238 5.0 13.0 0.11 0.25 0.25 80 1009.9
20260505020119 47 274 5.0 11.0 0.11 0.25 0.25 80 1009.9
20260505020017 47 290 5.0 11.0 0.11 0.25 0.25 80 1009.9
20260505015956 47 213 5.0 11.0 0.10 0.24 0.25 80 1009.9
20260505015926 47 339 5.0 11.0 0.10 0.24 0.24 80 1009.9
20260505015922 47 312 5.0 11.0 0.10 0.24 0.24 80 1009.9
20260505015736 47 193 5.0 11.0 0.11 0.24 0.24 80 1009.9
20260505015732 47 297 5.0 11.0 0.10 0.24 0.24 80 1009.9